KC5DAQ-23 Weather Reports


time (UTC)temp
F
wind
direction
speed
knots
gust
knots
rain 1hr
in
rain 24hr
in
rain mn
in
humidity
%
barometer
mb
20220627211845 93 86 6.1 11.3 0.00 0.00 0.00 60 1016.8
20220627211743 93 47 6.1 11.3 0.00 0.00 0.00 60 1016.8
20220627211642 93 78 6.1 11.3 0.00 0.00 0.00 60 1016.8
20220627211543 93 92 6.1 11.3 0.00 0.00 0.00 61 1016.8
20220627211444 93 76 7.8 11.3 0.00 0.00 0.00 61 1016.7
20220627211341 92 86 7.0 11.3 0.00 0.00 0.00 61 1016.7
20220627211243 92 116 6.1 10.4 0.00 0.00 0.00 61 1016.7
20220627211144 93 94 7.0 10.4 0.00 0.00 0.00 60 1016.7
20220627211041 93 104 7.0 10.4 0.00 0.00 0.00 61 1016.7
20220627210942 93 65 6.1 12.2 0.00 0.00 0.00 61 1016.7
20220627210841 93 62 5.2 12.2 0.00 0.00 0.00 61 1016.7
20220627210742 93 42 4.3 12.2 0.00 0.00 0.00 61 1016.8
20220627210642 92 93 7.0 12.2 0.00 0.00 0.00 61 1016.7
20220627210551 92 93 7.0 12.2 0.00 0.00 0.00 61 1016.8
20220627210445 92 93 7.0 12.2 0.00 0.00 0.00 61 1016.8
20220627210344 92 93 7.0 12.2 0.00 0.00 0.00 61 1016.8
20220627210242 93 109 7.0 12.2 0.00 0.00 0.00 61 1016.8
20220627210141 93 117 7.8 12.2 0.00 0.00 0.00 61 1016.8
20220627210043 93 106 7.8 12.2 0.00 0.00 0.00 61 1016.8
20220627205941 93 90 4.3 12.2 0.00 0.00 0.00 61 1016.8
20220627205843 93 73 2.6 10.4 0.00 0.00 0.00 61 1016.8
20220627205741 93 30 4.3 10.4 0.00 0.00 0.00 61 1016.8
20220627205641 93 83 6.1 10.4 0.00 0.00 0.00 61 1016.8
20220627205541 93 89 6.1 10.4 0.00 0.00 0.00 61 1016.7
20220627205441 93 89 5.2 10.4 0.00 0.00 0.00 61 1016.7
20220627205341 93 99 4.3 10.4 0.00 0.00 0.00 60 1016.8
20220627205241 93 107 4.3 10.4 0.00 0.00 0.00 61 1016.8
20220627205143 93 37 5.2 10.4 0.00 0.00 0.00 62 1016.8
20220627205041 93 68 6.1 11.3 0.00 0.00 0.00 62 1016.8
20220627204941 93 68 5.2 12.2 0.00 0.00 0.00 63 1016.8
20220627204842 92 63 5.2 12.2 0.00 0.00 0.00 64 1016.7
20220627204744 92 78 5.2 12.2 0.00 0.00 0.00 64 1016.6
20220627204642 92 103 6.1 12.2 0.00 0.00 0.00 63 1016.7
20220627204541 92 56 6.1 12.2 0.00 0.00 0.00 63 1016.7
20220627204446 92 55 7.0 16.5 0.00 0.00 0.00 63 1016.7
20220627204341 92 54 6.1 16.5 0.00 0.00 0.00 63 1016.7
20220627204240 92 58 5.2 16.5 0.00 0.00 0.00 63 1016.7
20220627204141 92 73 7.0 16.5 0.00 0.00 0.00 64 1016.7
20220627204040 92 80 8.7 16.5 0.00 0.00 0.00 63 1016.7
20220627203941 92 90 7.0 16.5 0.00 0.00 0.00 64 1016.7
20220627203842 92 85 7.0 16.5 0.00 0.00 0.00 63 1016.7
20220627203742 92 73 7.8 16.5 0.00 0.00 0.00 63 1016.7
20220627203641 92 106 9.6 16.5 0.00 0.00 0.00 63 1016.8
20220627203541 92 93 9.6 16.5 0.00 0.00 0.00 62 1016.8
20220627203443 92 76 7.0 11.3 0.00 0.00 0.00 63 1016.8
20220627203341 93 72 7.0 11.3 0.00 0.00 0.00 63 1016.8
20220627203241 93 71 7.0 11.3 0.00 0.00 0.00 62 1016.9
20220627203140 92 75 5.2 10.4 0.00 0.00 0.00 63 1016.8
20220627203041 92 80 5.2 10.4 0.00 0.00 0.00 62 1016.8
20220627202943 92 30 4.3 10.4 0.00 0.00 0.00 62 1016.9
20220627202840 92 39 5.2 10.4 0.00 0.00 0.00 62 1016.9
20220627202740 92 49 5.2 10.4 0.00 0.00 0.00 61 1016.9
20220627202641 93 47 5.2 10.4 0.00 0.00 0.00 61 1017.0
20220627202541 93 103 4.3 10.4 0.00 0.00 0.00 61 1017.0
20220627202439 92 55 5.2 10.4 0.00 0.00 0.00 61 1017.1
20220627202337 93 54 6.1 10.4 0.00 0.00 0.00 61 1017.1
20220627202235 93 75 6.1 10.4 0.00 0.00 0.00 61 1017.2
20220627202135 93 85 5.2 10.4 0.00 0.00 0.00 61 1017.2
20220627202038 92 52 5.2 10.4 0.00 0.00 0.00 62 1017.2
20220627201939 92 52 5.2 10.4 0.00 0.00 0.00 62 1017.2
20220627201834 92 75 4.3 10.4 0.00 0.00 0.00 62 1017.3
20220627201735 92 90 4.3 10.4 0.00 0.00 0.00 62 1017.3
20220627201636 92 31 4.3 10.4 0.00 0.00 0.00 62 1017.4
20220627201535 92 52 4.3 10.4 0.00 0.00 0.00 62 1017.4
20220627201435 92 45 4.3 10.4 0.00 0.00 0.00 62 1017.5
20220627201335 92 45 5.2 10.4 0.00 0.00 0.00 62 1017.4
20220627201236 91 83 4.3 10.4 0.00 0.00 0.00 62 1017.5
20220627201134 91 78 2.6 11.3 0.00 0.00 0.00 62 1017.5
20220627201034 91 23 2.6 11.3 0.00 0.00 0.00 61 1017.6
20220627200936 91 21 4.3 11.3 0.00 0.00 0.00 61 1017.6
20220627200834 92 1 6.1 11.3 0.00 0.00 0.00 62 1017.6
20220627200734 92 0 5.2 11.3 0.00 0.00 0.00 62 1017.6
20220627200635 92 1 3.5 11.3 0.00 0.00 0.00 63 1017.7
20220627200538 92 31 3.5 11.3 0.00 0.00 0.00 62 1017.6
20220627200435 92 44 5.2 11.3 0.00 0.00 0.00 62 1017.7
20220627200336 92 73 5.2 11.3 0.00 0.00 0.00 62 1017.7
20220627200235 92 42 5.2 11.3 0.00 0.00 0.00 63 1017.6
20220627200136 92 73 4.3 10.4 0.00 0.00 0.00 63 1017.6
20220627200034 92 16 3.5 10.4 0.00 0.00 0.00 63 1017.7
20220627195939 92 54 4.3 10.4 0.00 0.00 0.00 63 1017.7
20220627195835 92 63 6.1 10.4 0.00 0.00 0.00 62 1017.7
20220627195735 93 55 5.2 10.4 0.00 0.00 0.00 62 1017.7
20220627195636 93 51 3.5 9.6 0.00 0.00 0.00 62 1017.7
20220627195537 93 14 3.5 9.6 0.00 0.00 0.00 62 1017.7
20220627195434 93 59 3.5 10.4 0.00 0.00 0.00 62 1017.7
20220627195334 93 0 4.3 10.4 0.00 0.00 0.00 62 1017.8
20220627195238 93 44 5.2 10.4 0.00 0.00 0.00 62 1017.8
20220627195137 93 48 4.3 10.4 0.00 0.00 0.00 62 1017.7
20220627195035 93 83 4.3 10.4 0.00 0.00 0.00 62 1017.8
20220627194936 92 68 5.2 10.4 0.00 0.00 0.00 62 1017.8
20220627194834 92 96 4.3 10.4 0.00 0.00 0.00 63 1017.7
20220627194736 92 45 4.3 10.4 0.00 0.00 0.00 63 1017.8
20220627194634 92 82 5.2 10.4 0.00 0.00 0.00 63 1017.7
20220627194535 92 72 6.1 10.4 0.00 0.00 0.00 62 1017.8
20220627194447 92 113 5.2 10.4 0.00 0.00 0.00 62 1017.7
20220627194334 92 96 5.2 10.4 0.00 0.00 0.00 62 1017.8
20220627194235 92 49 6.1 10.4 0.00 0.00 0.00 62 1017.9
20220627194136 92 47 3.5 10.4 0.00 0.00 0.00 64 1017.9
20220627194035 92 47 3.5 10.4 0.00 0.00 0.00 64 1017.9
20220627193904 92 61 3.5 10.4 0.00 0.00 0.00 64 1017.9
20220627193804 92 76 4.3 10.4 0.00 0.00 0.00 64 1017.9
20220627193703 92 25 6.1 10.4 0.00 0.00 0.00 64 1017.9
20220627193603 91 92 5.2 10.4 0.00 0.00 0.00 64 1017.9
20220627193503 91 0 4.3 9.6 0.00 0.00 0.00 63 1017.9
20220627193404 91 23 3.5 9.6 0.00 0.00 0.00 63 1017.9
20220627193304 91 3 3.5 9.6 0.00 0.00 0.00 62 1017.9
20220627193204 91 49 4.3 9.6 0.00 0.00 0.00 63 1018.0
20220627193104 91 23 5.2 9.6 0.00 0.00 0.00 63 1017.9
20220627193004 91 8 5.2 9.6 0.00 0.00 0.00 62 1018.0
20220627192907 92 32 5.2 9.6 0.00 0.00 0.00 63 1018.0
20220627192803 91 10 4.3 9.6 0.00 0.00 0.00 62 1018.0
20220627192704 92 11 3.5 9.6 0.00 0.00 0.00 62 1017.9
20220627192603 92 23 5.2 9.6 0.00 0.00 0.00 61 1018.0
20220627192504 92 14 4.3 9.6 0.00 0.00 0.00 62 1018.0
20220627192404 92 13 4.3 9.6 0.00 0.00 0.00 62 1018.1
20220627192303 92 31 3.5 9.6 0.00 0.00 0.00 62 1018.1
20220627192204 92 24 3.5 9.6 0.00 0.00 0.00 62 1018.1
20220627192102 92 25 5.2 9.6 0.00 0.00 0.00 61 1018.0
20220627192002 92 61 3.5 9.6 0.00 0.00 0.00 61 1018.1
20220627191902 92 353 2.6 7.8 0.00 0.00 0.00 62 1018.1
20220627191800 92 96 3.5 7.8 0.00 0.00 0.00 61 1018.0
20220627191657 92 104 4.3 7.8 0.00 0.00 0.00 62 1018.1
20220627191557 92 4 3.5 7.8 0.00 0.00 0.00 63 1018.1
20220627191455 92 11 3.5 7.8 0.00 0.00 0.00 63 1018.1
20220627191353 92 35 3.5 7.8 0.00 0.00 0.00 63 1018.1
20220627191252 92 11 3.5 11.3 0.00 0.00 0.00 62 1018.1
20220627191151 92 66 3.5 11.3 0.00 0.00 0.00 62 1018.2
20220627191048 92 104 4.3 11.3 0.00 0.00 0.00 63 1018.1
20220627190950 92 6 3.5 11.3 0.00 0.00 0.00 62 1018.1
20220627190850 92 71 2.6 11.3 0.00 0.00 0.00 62 1018.1
20220627190745 92 31 3.5 11.3 0.00 0.00 0.00 62 1018.1
20220627190643 92 42 3.5 11.3 0.00 0.00 0.00 62 1018.1
20220627190541 92 44 5.2 11.3 0.00 0.00 0.00 61 1018.2
20220627190442 93 28 6.1 11.3 0.00 0.00 0.00 61 1018.2
20220627190342 93 37 6.1 11.3 0.00 0.00 0.00 60 1018.2
20220627190238 93 79 4.3 13.0 0.00 0.00 0.00 62 1018.3
20220627190138 93 62 4.3 13.0 0.00 0.00 0.00 62 1018.3
20220627190039 93 65 6.1 13.0 0.00 0.00 0.00 61 1018.2
20220627185938 93 109 7.0 13.0 0.00 0.00 0.00 60 1018.2
20220627185838 93 113 7.0 13.0 0.00 0.00 0.00 61 1018.2
20220627185738 93 93 4.3 13.0 0.00 0.00 0.00 61 1018.2
20220627185639 93 96 3.5 13.0 0.00 0.00 0.00 62 1018.3
20220627185539 93 17 6.1 13.0 0.00 0.00 0.00 61 1018.3
20220627185438 93 32 7.0 13.0 0.00 0.00 0.00 61 1018.2
20220627185343 93 32 5.2 13.0 0.00 0.00 0.00 61 1018.2
20220627185238 93 41 4.3 12.2 0.00 0.00 0.00 60 1018.2
20220627185138 93 37 5.2 12.2 0.00 0.00 0.00 59 1018.3
20220627185039 93 80 4.3 12.2 0.00 0.00 0.00 60 1018.3
20220627184939 93 25 2.6 12.2 0.00 0.00 0.00 60 1018.3
20220627184838 93 44 5.2 12.2 0.00 0.00 0.00 60 1018.3
20220627184738 93 8 5.2 12.2 0.00 0.00 0.00 59 1018.3
20220627184639 93 86 4.3 9.6 0.00 0.00 0.00 60 1018.3
20220627184538 94 0 3.5 9.6 0.00 0.00 0.00 61 1018.3
20220627184440 94 10 3.5 9.6 0.00 0.00 0.00 59 1018.3
20220627184339 94 54 5.2 9.6 0.00 0.00 0.00 60 1018.3
20220627184238 93 62 6.1 9.6 0.00 0.00 0.00 59 1018.3
20220627184138 93 90 4.3 9.6 0.00 0.00 0.00 59 1018.4
20220627184038 93 96 2.6 9.6 0.00 0.00 0.00 60 1018.3
20220627183939 93 4 3.5 9.6 0.00 0.00 0.00 59 1018.4
20220627183840 93 37 4.3 9.6 0.00 0.00 0.00 61 1018.5
20220627183737 93 6 6.1 9.6 0.00 0.00 0.00 61 1018.4
20220627183642 93 48 6.1 9.6 0.00 0.00 0.00 60 1018.4
20220627183538 93 31 4.3 9.6 0.00 0.00 0.00 61 1018.5
20220627183438 93 10 5.2 9.6 0.00 0.00 0.00 60 1018.5
20220627183337 94 55 3.5 11.3 0.00 0.00 0.00 60 1018.4
20220627183238 94 54 3.5 11.3 0.00 0.00 0.00 60 1018.4
20220627183138 94 100 5.2 11.3 0.00 0.00 0.00 60 1018.6
20220627183038 94 110 5.2 11.3 0.00 0.00 0.00 61 1018.5
20220627182938 93 107 4.3 11.3 0.00 0.00 0.00 62 1018.5
20220627182840 93 52 3.5 11.3 0.00 0.00 0.00 63 1018.6
20220627182737 93 48 5.2 11.3 0.00 0.00 0.00 63 1018.6
20220627182638 92 55 7.0 11.3 0.00 0.00 0.00 62 1018.6
20220627182539 93 97 6.1 11.3 0.00 0.00 0.00 63 1018.6
20220627182438 93 66 4.3 11.3 0.00 0.00 0.00 63 1018.6
20220627182337 92 37 3.5 10.4 0.00 0.00 0.00 64 1018.6
20220627182239 92 54 5.2 10.4 0.00 0.00 0.00 63 1018.6
20220627182137 92 69 5.2 10.4 0.00 0.00 0.00 62 1018.6
20220627182038 92 78 4.3 8.7 0.00 0.00 0.00 62 1018.7
20220627181942 92 86 4.3 10.4 0.00 0.00 0.00 62 1018.7
20220627181837 92 103 4.3 10.4 0.00 0.00 0.00 62 1018.7
20220627181738 92 78 4.3 10.4 0.00 0.00 0.00 63 1018.7
20220627181637 92 72 3.5 10.4 0.00 0.00 0.00 63 1018.7
20220627181538 92 106 4.3 11.3 0.00 0.00 0.00 63 1018.7
20220627181521 93 38 5.2 11.3 0.00 0.00 0.00 63 1018.7
20220627181458 92 52 4.3 11.3 0.00 0.00 0.00 62 1018.7
20220627181431 92 45 5.2 11.3 0.00 0.00 0.00 63 1018.8
20220627181409 93 54 5.2 11.3 0.00 0.00 0.00 63 1018.7
20220627181040 93 49 5.2 11.3 0.00 0.00 0.00 63 1018.7
20220627180938 93 93 6.1 11.3 0.00 0.00 0.00 63 1018.7
20220627180839 93 75 6.1 11.3 0.00 0.00 0.00 62 1018.8
20220627180737 93 72 4.3 11.3 0.00 0.00 0.00 61 1018.7
20220627180636 93 25 4.3 11.3 0.00 0.00 0.00 61 1018.7
20220627180539 93 16 4.3 11.3 0.00 0.00 0.00 61 1018.7
20220627180437 93 41 5.2 11.3 0.00 0.00 0.00 61 1018.7
20220627180337 93 71 4.3 11.3 0.00 0.00 0.00 61 1018.7
20220627180237 93 59 3.5 8.7 0.00 0.00 0.00 60 1018.7
20220627180138 93 355 4.3 8.7 0.00 0.00 0.00 59 1018.7
20220627180037 94 25 3.5 8.7 0.00 0.00 0.00 61 1018.8
20220627175937 93 99 3.5 8.7 0.00 0.00 0.00 60 1018.7
20220627175837 93 58 4.3 8.7 0.00 0.00 0.00 60 1018.7
20220627175740 93 82 5.2 8.7 0.00 0.00 0.00 60 1018.8
20220627175638 93 54 4.3 8.7 0.00 0.00 0.00 60 1018.7
20220627175536 93 76 3.5 8.7 0.00 0.00 0.00 60 1018.8
20220627175438 93 13 3.5 8.7 0.00 0.00 0.00 60 1018.8
20220627175336 93 8 4.3 8.7 0.00 0.00 0.00 59 1018.9
20220627175238 93 45 5.2 8.7 0.00 0.00 0.00 59 1018.9
20220627175137 93 78 4.3 8.7 0.00 0.00 0.00 60 1018.9
20220627175037 93 86 4.3 8.7 0.00 0.00 0.00 59 1018.9
20220627174939 93 347 4.3 8.7 0.00 0.00 0.00 59 1018.8
20220627174836 93 1 3.5 6.1 0.00 0.00 0.00 60 1018.9
20220627174738 93 86 3.5 6.1 0.00 0.00 0.00 60 1018.9
20220627174636 93 35 4.3 6.1 0.00 0.00 0.00 59 1018.8
20220627174536 93 107 3.5 5.2 0.00 0.00 0.00 59 1018.9
20220627174438 93 82 3.5 7.8 0.00 0.00 0.00 59 1018.9
20220627174337 92 35 3.5 7.8 0.00 0.00 0.00 60 1018.9
20220627174236 92 18 3.5 9.6 0.00 0.00 0.00 58 1019.0
20220627174138 93 52 3.5 9.6 0.00 0.00 0.00 58 1018.9
20220627174036 93 52 3.5 9.6 0.00 0.00 0.00 58 1018.9
20220627173937 93 52 3.5 9.6 0.00 0.00 0.00 58 1019.0
20220627173837 93 52 3.5 9.6 0.00 0.00 0.00 58 1019.0
20220627173736 93 52 3.5 9.6 0.00 0.00 0.00 58 1019.0
20220627173636 93 52 4.3 9.6 0.00 0.00 0.00 57 1018.9
20220627173537 94 80 5.2 9.6 0.00 0.00 0.00 58 1018.9
20220627173436 94 78 5.2 9.6 0.00 0.00 0.00 59 1018.9
20220627173336 94 51 5.2 9.6 0.00 0.00 0.00 59 1018.9
20220627173236 94 39 5.2 7.8 0.00 0.00 0.00 59 1019.0
20220627173136 94 23 4.3 7.8 0.00 0.00 0.00 59 1018.9
20220627173036 93 93 3.5 7.8 0.00 0.00 0.00 59 1018.9
20220627172937 93 123 4.3 7.8 0.00 0.00 0.00 59 1018.9
20220627172838 93 114 5.2 8.7 0.00 0.00 0.00 59 1018.9
20220627172740 93 120 4.3 8.7 0.00 0.00 0.00 58 1019.0
20220627172637 93 102 3.5 8.7 0.00 0.00 0.00 58 1019.0
20220627172536 93 51 2.6 8.7 0.00 0.00 0.00 58 1019.0
20220627172436 93 59 1.7 8.7 0.00 0.00 0.00 58 1019.0
20220627172337 93 59 2.6 8.7 0.00 0.00 0.00 58 1019.0
20220627172239 93 61 3.5 8.7 0.00 0.00 0.00 58 1019.1
20220627172136 93 113 4.3 8.7 0.00 0.00 0.00 57 1019.0
20220627172037 93 113 5.2 8.7 0.00 0.00 0.00 58 1019.0
20220627171936 93 52 5.2 8.7 0.00 0.00 0.00 58 1019.0
20220627171837 93 114 3.5 8.7 0.00 0.00 0.00 59 1019.1
20220627171736 93 42 1.7 8.7 0.00 0.00 0.00 59 1019.1
20220627171636 93 83 0.9 8.7 0.00 0.00 0.00 58 1019.1
20220627171536 93 83 1.7 8.7 0.00 0.00 0.00 57 1019.1
20220627171436 93 83 3.5 8.7 0.00 0.00 0.00 57 1019.1
20220627171336 93 102 3.5 8.7 0.00 0.00 0.00 57 1019.1
20220627171238 93 45 4.3 8.7 0.00 0.00 0.00 58 1019.1
20220627171135 93 28 3.5 9.6 0.00 0.00 0.00 58 1019.0
20220627171036 92 58 3.5 9.6 0.00 0.00 0.00 57 1019.0
20220627170937 92 61 4.3 9.6 0.00 0.00 0.00 58 1019.0
20220627170835 92 4 3.5 9.6 0.00 0.00 0.00 59 1019.0
20220627170735 92 83 1.7 9.6 0.00 0.00 0.00 58 1019.2
20220627170636 92 38 1.7 9.6 0.00 0.00 0.00 58 1019.1
20220627170535 92 38 3.5 9.6 0.00 0.00 0.00 57 1019.1
20220627170436 93 39 4.3 9.6 0.00 0.00 0.00 57 1019.2
20220627170335 93 87 4.3 9.6 0.00 0.00 0.00 58 1019.2
20220627170237 93 32 6.1 9.6 0.00 0.00 0.00 57 1019.2
20220627170135 93 106 5.2 9.6 0.00 0.00 0.00 57 1019.2
20220627170035 92 113 4.3 8.7 0.00 0.00 0.00 56 1019.2
20220627165937 92 149 3.5 7.8 0.00 0.00 0.00 56 1019.2
20220627165835 92 106 4.3 7.8 0.00 0.00 0.00 56 1019.2
20220627165736 92 79 4.3 7.8 0.00 0.00 0.00 56 1019.2
20220627165635 92 76 4.3 6.1 0.00 0.00 0.00 56 1019.3
20220627165535 92 3 3.5 6.1 0.00 0.00 0.00 54 1019.2
20220627165436 92 8 2.6 6.1 0.00 0.00 0.00 53 1019.2
20220627165336 92 317 3.5 6.1 0.00 0.00 0.00 53 1019.2
20220627165238 92 326 4.3 6.1 0.00 0.00 0.00 53 1019.2
20220627165137 93 330 3.5 6.1 0.00 0.00 0.00 53 1019.2
20220627165035 93 320 2.6 6.1 0.00 0.00 0.00 53 1019.2
20220627164935 92 56 1.7 6.1 0.00 0.00 0.00 54 1019.2
20220627164835 92 73 2.6 6.1 0.00 0.00 0.00 53 1019.2
20220627164735 92 58 2.6 6.1 0.00 0.00 0.00 54 1019.3
20220627164635 92 52 3.5 6.1 0.00 0.00 0.00 54 1019.2
20220627164539 92 16 3.5 6.1 0.00 0.00 0.00 54 1019.2
20220627164437 92 17 2.6 6.1 0.00 0.00 0.00 54 1019.2
20220627164336 92 30 3.5 6.1 0.00 0.00 0.00 54 1019.2
20220627164240 92 10 4.3 6.1 0.00 0.00 0.00 55 1019.3
20220627164136 92 3 4.3 6.1 0.00 0.00 0.00 55 1019.3
20220627164035 92 7 3.5 6.1 0.00 0.00 0.00 56 1019.3
20220627163935 92 0 3.5 6.1 0.00 0.00 0.00 56 1019.3
20220627163836 92 61 3.5 6.1 0.00 0.00 0.00 55 1019.3
20220627163738 92 45 3.5 6.1 0.00 0.00 0.00 56 1019.3
20220627163635 92 4 3.5 6.1 0.00 0.00 0.00 54 1019.3
20220627163538 92 11 2.6 6.1 0.00 0.00 0.00 55 1019.3
20220627163435 92 94 1.7 6.1 0.00 0.00 0.00 54 1019.3
20220627163334 92 39 1.7 6.1 0.00 0.00 0.00 54 1019.3
20220627163234 92 39 2.6 6.1 0.00 0.00 0.00 55 1019.3
20220627163134 92 39 2.6 7.8 0.00 0.00 0.00 55 1019.3
20220627163035 92 354 2.6 7.8 0.00 0.00 0.00 55 1019.3
20220627162933 91 338 2.6 7.8 0.00 0.00 0.00 56 1019.3
20220627162832 91 357 2.6 7.8 0.00 0.00 0.00 55 1019.3
20220627162733 92 0 3.5 7.8 0.00 0.00 0.00 56 1019.3
20220627162628 92 0 3.5 7.8 0.00 0.00 0.00 56 1019.3
20220627162527 91 0 3.5 7.8 0.00 0.00 0.00 57 1019.2
20220627162426 91 0 3.5 7.8 0.00 0.00 0.00 57 1019.3
20220627162323 91 17 4.3 7.8 0.00 0.00 0.00 57 1019.2
20220627162223 92 17 3.5 7.8 0.00 0.00 0.00 56 1019.2
20220627162121 91 58 2.6 5.2 0.00 0.00 0.00 57 1019.3
20220627162019 91 59 1.7 5.2 0.00 0.00 0.00 57 1019.4
20220627161917 91 68 2.6 5.2 0.00 0.00 0.00 57 1019.4
20220627161818 92 66 3.5 5.2 0.00 0.00 0.00 57 1019.3
20220627161718 92 94 3.5 5.2 0.00 0.00 0.00 57 1019.3
20220627161612 91 78 1.7 5.2 0.00 0.00 0.00 59 1019.3
20220627161508 91 299 2.6 5.2 0.00 0.00 0.00 60 1019.4
20220627161406 91 298 2.6 5.2 0.00 0.00 0.00 59 1019.3
20220627161305 91 8 1.7 5.2 0.00 0.00 0.00 58 1019.3
20220627161204 91 6 1.7 5.2 0.00 0.00 0.00 60 1019.3
20220627161103 91 3 2.6 5.2 0.00 0.00 0.00 60 1019.3
20220627161004 91 0 2.6 5.2 0.00 0.00 0.00 61 1019.3
20220627160904 91 0 2.6 6.1 0.00 0.00 0.00 60 1019.3
20220627160805 91 0 1.7 6.1 0.00 0.00 0.00 60 1019.3
20220627160705 91 343 1.7 6.1 0.00 0.00 0.00 60 1019.3
20220627160603 91 343 0.9 6.1 0.00 0.00 0.00 60 1019.3
20220627160502 91 340 1.7 6.1 0.00 0.00 0.00 59 1019.3
20220627160400 91 337 2.6 6.1 0.00 0.00 0.00 60 1019.3
20220627160259 91 0 2.6 6.1 0.00 0.00 0.00 61 1019.3
20220627160158 91 7 2.6 6.1 0.00 0.00 0.00 59 1019.3
20220627160057 91 6 3.5 6.1 0.00 0.00 0.00 61 1019.3
20220627155954 91 3 3.5 6.1 0.00 0.00 0.00 59 1019.2
20220627155854 91 56 3.5 6.1 0.00 0.00 0.00 59 1019.3
20220627155752 91 30 4.3 6.1 0.00 0.00 0.00 59 1019.2
20220627155650 91 44 3.5 6.1 0.00 0.00 0.00 60 1019.3
20220627155550 91 11 3.5 6.1 0.00 0.00 0.00 58 1019.3
20220627155447 91 21 3.5 6.1 0.00 0.00 0.00 60 1019.3
20220627155345 91 16 3.5 6.1 0.00 0.00 0.00 60 1019.3
20220627155248 91 13 4.3 6.1 0.00 0.00 0.00 61 1019.3
20220627155141 91 48 4.3 6.1 0.00 0.00 0.00 61 1019.3
20220627155041 91 8 3.5 6.1 0.00 0.00 0.00 61 1019.3
20220627154939 90 18 3.5 6.1 0.00 0.00 0.00 61 1019.3
20220627154839 90 0 3.5 6.1 0.00 0.00 0.00 62 1019.4
20220627154737 90 20 2.6 6.1 0.00 0.00 0.00 62 1019.3
20220627154635 90 0 1.7 7.8 0.00 0.00 0.00 63 1019.4
20220627154535 89 0 2.6 7.8 0.00 0.00 0.00 65 1019.3
20220627154435 89 0 2.6 7.8 0.00 0.00 0.00 65 1019.4
20220627154334 89 341 2.6 7.8 0.00 0.00 0.00 65 1019.4
20220627154235 89 0 2.6 7.8 0.00 0.00 0.00 65 1019.3
20220627154134 89 0 2.6 7.8 0.00 0.00 0.00 66 1019.4
20220627154035 90 0 2.6 8.7 0.00 0.00 0.00 66 1019.4
20220627153937 89 0 2.6 8.7 0.00 0.00 0.00 66 1019.4
20220627153835 89 0 3.5 8.7 0.00 0.00 0.00 65 1019.4
20220627153734 89 0 4.3 8.7 0.00 0.00 0.00 65 1019.4
20220627153635 89 0 3.5 8.7 0.00 0.00 0.00 65 1019.4
20220627153534 89 348 3.5 8.7 0.00 0.00 0.00 66 1019.4
20220627153436 89 0 4.3 8.7 0.00 0.00 0.00 66 1019.4
20220627153336 89 0 4.3 8.7 0.00 0.00 0.00 66 1019.5
20220627153238 89 347 5.2 8.7 0.00 0.00 0.00 65 1019.4
20220627153135 89 0 5.2 8.7 0.00 0.00 0.00 66 1019.6
20220627153036 89 0 3.5 7.8 0.00 0.00 0.00 67 1019.4
20220627152933 89 0 3.5 7.8 0.00 0.00 0.00 67 1019.5
20220627152834 89 0 4.3 7.8 0.00 0.00 0.00 67 1019.4
20220627152733 88 1 3.5 10.4 0.00 0.00 0.00 68 1019.5
20220627152633 88 0 1.7 10.4 0.00 0.00 0.00 68 1019.4
20220627152537 88 20 2.6 10.4 0.00 0.00 0.00 67 1019.5
20220627152434 88 13 3.5 10.4 0.00 0.00 0.00 67 1019.4
20220627152334 88 13 3.5 10.4 0.00 0.00 0.00 66 1019.4
20220627152235 88 343 3.5 10.4 0.00 0.00 0.00 67 1019.4
20220627152134 88 0 4.3 10.4 0.00 0.00 0.00 66 1019.4
20220627152033 88 0 5.2 10.4 0.00 0.00 0.00 65 1019.4
20220627151934 88 0 5.2 10.4 0.00 0.00 0.00 65 1019.4
20220627151835 88 14 5.2 10.4 0.00 0.00 0.00 65 1019.4
20220627151733 88 0 5.2 10.4 0.00 0.00 0.00 65 1019.4
20220627151633 88 0 6.1 10.4 0.00 0.00 0.00 66 1019.4
20220627151534 88 0 4.3 10.4 0.00 0.00 0.00 68 1019.5
20220627151434 88 0 4.3 7.8 0.00 0.00 0.00 68 1019.5
20220627151333 88 340 4.3 9.6 0.00 0.00 0.00 68 1019.6
20220627151233 88 0 3.5 9.6 0.00 0.00 0.00 69 1019.6
20220627151134 88 353 3.5 9.6 0.00 0.00 0.00 70 1019.5
20220627151033 88 355 3.5 9.6 0.00 0.00 0.00 71 1019.5
20220627150934 88 353 2.6 9.6 0.00 0.00 0.00 71 1019.5
20220627150835 87 348 2.6 9.6 0.00 0.00 0.00 71 1019.5
20220627150733 87 334 3.5 9.6 0.00 0.00 0.00 71 1019.5
20220627150632 87 329 3.5 9.6 0.00 0.00 0.00 70 1019.5
20220627150533 87 0 5.2 9.6 0.00 0.00 0.00 70 1019.5
20220627150433 88 338 4.3 9.6 0.00 0.00 0.00 71 1019.4
20220627150334 88 355 4.3 8.7 0.00 0.00 0.00 71 1019.5
20220627150232 88 329 3.5 8.7 0.00 0.00 0.00 71 1019.4
20220627150132 88 334 2.6 8.7 0.00 0.00 0.00 71 1019.4
20220627150033 88 353 1.7 8.7 0.00 0.00 0.00 71 1019.4
20220627145932 88 340 2.6 8.7 0.00 0.00 0.00 71 1019.5
20220627145833 88 348 4.3 8.7 0.00 0.00 0.00 71 1019.5
20220627145734 88 333 3.5 8.7 0.00 0.00 0.00 71 1019.5
20220627145633 88 351 4.3 8.7 0.00 0.00 0.00 71 1019.6
20220627145532 88 347 5.2 8.7 0.00 0.00 0.00 71 1019.6
20220627145435 88 344 3.5 6.1 0.00 0.00 0.00 72 1019.6
20220627145336 87 0 3.5 6.1 0.00 0.00 0.00 72 1019.6
20220627145233 87 330 3.5 6.1 0.00 0.00 0.00 73 1019.7
20220627145132 87 24 2.6 5.2 0.00 0.00 0.00 73 1019.7
20220627145035 87 347 1.7 5.2 0.00 0.00 0.00 74 1019.7
20220627144932 87 334 1.7 5.2 0.00 0.00 0.00 74 1019.7
20220627144832 87 336 2.6 5.2 0.00 0.00 0.00 74 1019.7
20220627144737 87 336 3.5 5.2 0.00 0.00 0.00 74 1019.8
20220627144632 87 0 2.6 4.3 0.00 0.00 0.00 75 1019.8
20220627144532 87 313 2.6 4.3 0.00 0.00 0.00 75 1019.7
20220627144432 87 320 1.7 3.5 0.00 0.00 0.00 75 1019.7
20220627144333 87 320 0.0 3.5 0.00 0.00 0.00 76 1019.7
20220627144232 87 320 0.0 3.5 0.00 0.00 0.00 76 1019.7
20220627144132 86 351 0.0 3.5 0.00 0.00 0.00 76 1019.6
20220627144032 86 351 0.0 3.5 0.00 0.00 0.00 76 1019.7
20220627143932 86 347 0.0 3.5 0.00 0.00 0.00 77 1019.6
20220627143834 86 336 0.0 3.5 0.00 0.00 0.00 76 1019.7
20220627143733 86 336 0.9 3.5 0.00 0.00 0.00 76 1019.7
20220627143633 86 336 1.7 3.5 0.00 0.00 0.00 76 1019.7
20220627143535 86 336 1.7 3.5 0.00 0.00 0.00 77 1019.8
20220627143432 86 336 1.7 3.5 0.00 0.00 0.00 78 1019.8
20220627143334 86 337 1.7 3.5 0.00 0.00 0.00 77 1019.7
20220627143234 86 344 1.7 3.5 0.00 0.00 0.00 77 1019.8
20220627143133 85 344 1.7 3.5 0.00 0.00 0.00 78 1019.8
20220627143033 85 344 1.7 3.5 0.00 0.00 0.00 78 1019.7
20220627142932 85 345 1.7 3.5 0.00 0.00 0.00 77 1019.7
20220627142832 85 316 1.7 3.5 0.00 0.00 0.00 77 1019.7
20220627142732 85 316 1.7 3.5 0.00 0.00 0.00 77 1019.7
20220627142632 85 316 1.7 3.5 0.00 0.00 0.00 77 1019.7
20220627142532 85 316 2.6 3.5 0.00 0.00 0.00 78 1019.7
20220627142432 85 316 2.6 3.5 0.00 0.00 0.00 77 1019.7
20220627142333 85 316 1.7 3.5 0.00 0.00 0.00 78 1019.7
20220627142231 85 316 1.7 4.3 0.00 0.00 0.00 78 1019.7
20220627142132 85 314 0.9 4.3 0.00 0.00 0.00 78 1019.7
20220627142032 85 316 1.7 4.3 0.00 0.00 0.00 78 1019.7
20220627141936 85 313 2.6 4.3 0.00 0.00 0.00 78 1019.7
20220627141832 85 313 2.6 4.3 0.00 0.00 0.00 78 1019.8
20220627141732 85 313 1.7 4.3 0.00 0.00 0.00 78 1019.8
20220627141632 85 320 0.9 4.3 0.00 0.00 0.00 78 1019.8
20220627141535 85 319 1.7 4.3 0.00 0.00 0.00 78 1019.8
20220627141432 85 320 3.5 4.3 0.00 0.00 0.00 78 1019.8
20220627141332 85 309 2.6 4.3 0.00 0.00 0.00 78 1019.8
20220627141233 85 323 2.6 3.5 0.00 0.00 0.00 77 1019.8
20220627141132 85 323 2.6 3.5 0.00 0.00 0.00 78 1019.8
20220627141032 85 326 1.7 3.5 0.00 0.00 0.00 78 1019.8
20220627140931 85 331 1.7 3.5 0.00 0.00 0.00 78 1019.8
20220627140834 85 331 1.7 3.5 0.00 0.00 0.00 77 1019.9
20220627140733 85 331 1.7 3.5 0.00 0.00 0.00 78 1019.8
20220627140632 85 331 1.7 3.5 0.00 0.00 0.00 78 1019.8
20220627140533 85 331 2.6 3.5 0.00 0.00 0.00 78 1019.8
20220627140431 85 330 1.7 3.5 0.00 0.00 0.00 78 1019.7
20220627140331 85 307 1.7 3.5 0.00 0.00 0.00 78 1019.8
20220627140232 85 307 1.7 3.5 0.00 0.00 0.00 79 1019.7
20220627140135 85 307 1.7 3.5 0.00 0.00 0.00 80 1019.7
20220627140031 84 307 2.6 3.5 0.00 0.00 0.00 80 1019.6
20220627135931 84 307 2.6 3.5 0.00 0.00 0.00 80 1019.6
20220627135836 84 309 1.7 4.3 0.00 0.00 0.00 80 1019.5
20220627135731 84 309 0.9 4.3 0.00 0.00 0.00 80 1019.4
20220627135632 84 309 1.7 4.3 0.00 0.00 0.00 80 1019.5
20220627135534 84 309 0.9 4.3 0.00 0.00 0.00 80 1019.4
20220627135432 84 309 0.9 4.3 0.00 0.00 0.00 80 1019.4
20220627135331 84 309 0.9 4.3 0.00 0.00 0.00 80 1019.5
20220627135231 84 309 1.7 4.3 0.00 0.00 0.00 80 1019.5
20220627135133 84 309 1.7 4.3 0.00 0.00 0.00 80 1019.5
20220627135032 84 309 2.6 5.2 0.00 0.00 0.00 80 1019.6
20220627134931 84 313 2.6 6.1 0.00 0.00 0.00 80 1019.5
20220627134836 84 316 1.7 6.1 0.00 0.00 0.00 80 1019.4
20220627134731 84 316 1.7 6.1 0.00 0.00 0.00 80 1019.4
20220627134632 84 312 2.6 6.1 0.00 0.00 0.00 80 1019.4
20220627134533 84 300 2.6 6.1 0.00 0.00 0.00 80 1019.4
20220627134432 84 285 2.6 6.1 0.00 0.00 0.00 80 1019.4
20220627134331 84 278 3.5 6.1 0.00 0.00 0.00 80 1019.3
20220627134231 84 274 3.5 6.1 0.00 0.00 0.00 80 1019.3
20220627134133 84 307 4.3 6.1 0.00 0.00 0.00 80 1019.3
20220627134034 84 300 4.3 6.1 0.00 0.00 0.00 80 1019.3
20220627133933 84 326 3.5 6.1 0.00 0.00 0.00 81 1019.5
20220627133834 84 312 2.6 6.1 0.00 0.00 0.00 81 1019.4
20220627133732 84 324 2.6 6.1 0.00 0.00 0.00 82 1019.4
20220627133630 83 324 3.5 6.1 0.00 0.00 0.00 82 1019.5
20220627133530 83 321 3.5 6.1 0.00 0.00 0.00 83 1019.5
20220627133431 83 319 3.5 6.1 0.00 0.00 0.00 83 1019.4
20220627133332 83 326 3.5 6.1 0.00 0.00 0.00 83 1019.3
20220627133230 83 326 4.3 6.1 0.00 0.00 0.00 83 1019.3
20220627133131 83 298 3.5 5.2 0.00 0.00 0.00 84 1019.3
20220627133031 83 300 2.6 5.2 0.00 0.00 0.00 84 1019.4
20220627132930 83 303 3.5 6.1 0.00 0.00 0.00 84 1019.4
20220627132830 83 302 3.5 6.1 0.00 0.00 0.00 84 1019.4
20220627132731 83 299 3.5 6.1 0.00 0.00 0.00 84 1019.3
20220627132632 83 317 2.6 6.1 0.00 0.00 0.00 84 1019.4
20220627132531 83 317 2.6 6.1 0.00 0.00 0.00 85 1019.4
20220627132431 83 312 3.5 6.1 0.00 0.00 0.00 84 1019.4
20220627132331 83 306 3.5 6.1 0.00 0.00 0.00 84 1019.3
20220627132235 83 310 3.5 6.1 0.00 0.00 0.00 84 1019.3
20220627132130 83 307 4.3 6.1 0.00 0.00 0.00 84 1019.2
20220627132032 83 307 4.3 6.1 0.00 0.00 0.00 85 1019.3
20220627131931 83 306 3.5 6.1 0.00 0.00 0.00 85 1019.2
20220627131831 83 307 3.5 5.2 0.00 0.00 0.00 85 1019.2
20220627131732 83 309 2.6 5.2 0.00 0.00 0.00 85 1019.1
20220627131633 83 309 2.6 5.2 0.00 0.00 0.00 84 1019.2
20220627131531 83 309 1.7 5.2 0.00 0.00 0.00 84 1019.1
20220627131431 83 309 2.6 5.2 0.00 0.00 0.00 85 1019.1
20220627131332 83 310 3.5 5.2 0.00 0.00 0.00 84 1019.2
20220627131230 83 305 2.6 5.2 0.00 0.00 0.00 84 1019.2
20220627131131 83 305 3.5 5.2 0.00 0.00 0.00 84 1019.1
20220627131031 83 303 3.5 5.2 0.00 0.00 0.00 84 1019.2
20220627130931 83 299 2.6 5.2 0.00 0.00 0.00 84 1019.3
20220627130830 83 326 2.6 4.3 0.00 0.00 0.00 83 1019.2
20220627130730 83 326 1.7 4.3 0.00 0.00 0.00 84 1019.2
20220627130633 83 340 0.0 2.6 0.00 0.00 0.00 84 1019.3
20220627130529 83 354 0.0 2.6 0.00 0.00 0.00 84 1019.3
20220627130430 83 354 0.0 2.6 0.00 0.00 0.00 84 1019.4
20220627130330 83 0 0.0 2.6 0.00 0.00 0.00 84 1019.3
20220627130231 83 0 0.9 2.6 0.00 0.00 0.00 84 1019.4
20220627130130 83 0 0.9 2.6 0.00 0.00 0.00 84 1019.3
20220627130030 83 0 1.7 2.6 0.00 0.00 0.00 84 1019.4
20220627125932 83 17 1.7 2.6 0.00 0.00 0.00 84 1019.4
20220627125831 83 17 1.7 2.6 0.00 0.00 0.00 84 1019.4
20220627125730 83 17 1.7 2.6 0.00 0.00 0.00 84 1019.4
20220627125632 83 17 1.7 2.6 0.00 0.00 0.00 85 1019.4
20220627125532 82 18 0.9 2.6 0.00 0.00 0.00 85 1019.4
20220627125430 82 27 0.9 2.6 0.00 0.00 0.00 85 1019.3
20220627125331 82 27 1.7 2.6 0.00 0.00 0.00 85 1019.3
20220627125231 82 27 1.7 2.6 0.00 0.00 0.00 85 1019.5
20220627125132 82 27 1.7 2.6 0.00 0.00 0.00 86 1019.4
20220627125030 82 27 0.9 2.6 0.00 0.00 0.00 86 1019.4
20220627124931 82 27 1.7 2.6 0.00 0.00 0.00 86 1019.4
20220627124833 82 27 1.7 2.6 0.00 0.00 0.00 86 1019.4
20220627124729 82 27 1.7 2.6 0.00 0.00 0.00 86 1019.4
20220627124630 82 27 1.7 2.6 0.00 0.00 0.00 86 1019.4
20220627124531 82 27 1.7 2.6 0.00 0.00 0.00 86 1019.4
20220627124432 81 27 1.7 2.6 0.00 0.00 0.00 86 1019.4
20220627124331 81 27 1.7 2.6 0.00 0.00 0.00 86 1019.4
20220627124231 81 27 0.9 2.6 0.00 0.00 0.00 87 1019.4
20220627124129 81 28 0.9 2.6 0.00 0.00 0.00 87 1019.4
20220627124030 81 28 0.9 2.6 0.00 0.00 0.00 87 1019.4
20220627123929 81 27 1.7 2.6 0.00 0.00 0.00 87 1019.4
20220627123829 81 27 1.7 2.6 0.00 0.00 0.00 87 1019.4
20220627123732 81 27 0.9 2.6 0.00 0.00 0.00 87 1019.4
20220627123629 81 27 0.9 2.6 0.00 0.00 0.00 87 1019.4
20220627123531 81 27 0.0 2.6 0.00 0.00 0.00 87 1019.4
20220627123430 81 27 0.0 2.6 0.00 0.00 0.00 88 1019.4
20220627123329 81 27 0.0 2.6 0.00 0.00 0.00 88 1019.4
20220627123229 81 27 0.0 2.6 0.00 0.00 0.00 88 1019.4
20220627123133 81 28 0.9 2.6 0.00 0.00 0.00 88 1019.3
20220627123031 80 27 0.9 2.6 0.00 0.00 0.00 88 1019.4
20220627122930 80 27 0.9 2.6 0.00 0.00 0.00 88 1019.4
20220627122830 80 27 0.0 2.6 0.00 0.00 0.00 88 1019.4
20220627122729 80 28 0.9 2.6 0.00 0.00 0.00 88 1019.3
20220627122629 80 28 1.7 2.6 0.00 0.00 0.00 88 1019.4
20220627122530 80 27 1.7 4.3 0.00 0.00 0.00 88 1019.3
20220627122429 80 27 1.7 4.3 0.00 0.00 0.00 88 1019.3
20220627122329 80 27 1.7 4.3 0.00 0.00 0.00 88 1019.4
20220627122230 80 27 1.7 4.3 0.00 0.00 0.00 88 1019.3
20220627122134 80 27 1.7 4.3 0.00 0.00 0.00 88 1019.2
20220627122029 80 27 1.7 4.3 0.00 0.00 0.00 88 1019.3
20220627121929 80 27 1.7 4.3 0.00 0.00 0.00 88 1019.3
20220627121832 80 27 1.7 4.3 0.00 0.00 0.00 87 1019.2
20220627121732 80 27 1.7 4.3 0.00 0.00 0.00 87 1019.3
20220627121629 80 27 1.7 4.3 0.00 0.00 0.00 87 1019.3
20220627121529 81 27 1.7 3.5 0.00 0.00 0.00 87 1019.3
20220627121434 81 23 1.7 3.5 0.00 0.00 0.00 87 1019.3
20220627121331 81 23 1.7 3.5 0.00 0.00 0.00 87 1019.3
20220627121229 81 0 1.7 3.5 0.00 0.00 0.00 87 1019.2
20220627121130 81 0 1.7 3.5 0.00 0.00 0.00 87 1019.2
20220627121029 81 0 2.6 3.5 0.00 0.00 0.00 87 1019.1
20220627120929 81 278 1.7 2.6 0.00 0.00 0.00 87 1019.1
20220627120830 81 272 1.7 2.6 0.00 0.00 0.00 87 1019.0
20220627120731 81 269 1.7 2.6 0.00 0.00 0.00 87 1019.0
20220627120629 81 266 0.9 2.6 0.00 0.00 0.00 87 1018.9
20220627120528 81 262 0.9 2.6 0.00 0.00 0.00 87 1018.9
20220627120432 81 262 0.9 2.6 0.00 0.00 0.00 87 1018.9
20220627120330 81 262 1.7 2.6 0.00 0.00 0.00 87 1018.9
20220627120231 81 259 1.7 2.6 0.00 0.00 0.00 86 1018.9
20220627120131 81 259 1.7 2.6 0.00 0.00 0.00 86 1018.8
20220627120029 81 259 1.7 2.6 0.00 0.00 0.00 86 1018.8
20220627115928 81 259 0.9 2.6 0.00 0.00 0.00 86 1018.8
20220627115827 81 259 0.9 2.6 0.00 0.00 0.00 86 1018.8
20220627115730 81 259 0.9 2.6 0.00 0.00 0.00 86 1018.8
20220627115631 81 259 0.9 2.6 0.00 0.00 0.00 86 1018.8
20220627115528 81 259 0.0 2.6 0.00 0.00 0.00 86 1018.8
20220627115428 81 259 0.0 2.6 0.00 0.00 0.00 86 1018.8
20220627115329 81 259 0.0 2.6 0.00 0.00 0.00 86 1018.7
20220627115228 81 259 0.9 2.6 0.00 0.00 0.00 86 1018.7
20220627115128 81 259 0.9 2.6 0.00 0.00 0.00 86 1018.7
20220627115028 81 259 0.9 2.6 0.00 0.00 0.00 86 1018.7
20220627114929 81 259 0.9 3.5 0.00 0.00 0.00 86 1018.7
20220627114829 81 259 0.9 3.5 0.00 0.00 0.00 86 1018.6
20220627114728 81 259 0.9 3.5 0.00 0.00 0.00 86 1018.6
20220627114630 81 259 1.7 3.5 0.00 0.00 0.00 86 1018.6
20220627114529 81 259 0.9 3.5 0.00 0.00 0.00 86 1018.6
20220627114428 81 259 1.7 3.5 0.00 0.00 0.00 86 1018.6
20220627114329 81 259 1.7 3.5 0.00 0.00 0.00 86 1018.6
20220627114229 81 259 1.7 3.5 0.00 0.00 0.00 86 1018.6
20220627114129 81 259 1.7 3.5 0.00 0.00 0.00 86 1018.6
20220627114028 81 259 1.7 3.5 0.00 0.00 0.00 86 1018.7
20220627113932 81 259 1.7 3.5 0.00 0.00 0.00 86 1018.7
20220627113828 81 259 1.7 3.5 0.00 0.00 0.00 86 1018.6
20220627113728 81 259 1.7 3.5 0.00 0.00 0.00 86 1018.6
20220627113629 81 259 1.7 3.5 0.00 0.00 0.00 86 1018.6
20220627113528 81 259 2.6 3.5 0.00 0.00 0.00 86 1018.5
20220627113429 81 258 2.6 3.5 0.00 0.00 0.00 86 1018.6
20220627113329 81 255 2.6 3.5 0.00 0.00 0.00 86 1018.6
20220627113227 81 255 2.6 3.5 0.00 0.00 0.00 86 1018.5
20220627113128 81 250 1.7 2.6 0.00 0.00 0.00 86 1018.6
20220627113029 81 250 1.7 2.6 0.00 0.00 0.00 86 1018.6
20220627112929 81 250 0.0 1.7 0.00 0.00 0.00 86 1018.6
20220627112832 81 250 0.0 1.7 0.00 0.00 0.00 86 1018.6
20220627112729 81 250 0.0 1.7 0.00 0.00 0.00 86 1018.6
20220627112630 81 250 0.0 1.7 0.00 0.00 0.00 86 1018.6
20220627112529 81 250 0.0 1.7 0.00 0.00 0.00 86 1018.5
20220627112427 81 250 0.0 1.7 0.00 0.00 0.00 86 1018.6
20220627112327 81 250 0.0 1.7 0.00 0.00 0.00 86 1018.5
20220627112230 81 250 0.0 1.7 0.00 0.00 0.00 86 1018.4
20220627112127 81 250 0.9 1.7 0.00 0.00 0.00 86 1018.5
20220627112028 81 250 0.9 1.7 0.00 0.00 0.00 86 1018.6
20220627111928 81 250 0.9 1.7 0.00 0.00 0.00 86 1018.6
20220627111828 81 250 0.9 1.7 0.00 0.00 0.00 86 1018.5
20220627111727 81 250 0.9 1.7 0.00 0.00 0.00 86 1018.5
20220627111628 81 250 0.9 1.7 0.00 0.00 0.00 86 1018.5
20220627111528 81 250 1.7 1.7 0.00 0.00 0.00 86 1018.5
20220627111427 81 250 1.7 2.6 0.00 0.00 0.00 86 1018.5
20220627111326 81 250 0.9 2.6 0.00 0.00 0.00 86 1018.5
20220627111228 81 250 0.9 2.6 0.00 0.00 0.00 86 1018.5
20220627111128 81 250 1.7 2.6 0.00 0.00 0.00 86 1018.5
20220627111027 81 250 1.7 2.6 0.00 0.00 0.00 86 1018.4
20220627110927 81 250 0.9 2.6 0.00 0.00 0.00 86 1018.5
20220627110827 81 250 1.7 2.6 0.00 0.00 0.00 86 1018.4
20220627110727 81 250 1.7 2.6 0.00 0.00 0.00 86 1018.4
20220627110629 81 250 1.7 2.6 0.00 0.00 0.00 86 1018.4
20220627110528 81 250 1.7 2.6 0.00 0.00 0.00 86 1018.4
20220627110427 81 250 1.7 2.6 0.00 0.00 0.00 86 1018.5
20220627110327 81 250 1.7 2.6 0.00 0.00 0.00 85 1018.5
20220627110228 81 250 1.7 2.6 0.00 0.00 0.00 85 1018.5
20220627110129 81 250 1.7 2.6 0.00 0.00 0.00 85 1018.4
20220627110027 81 250 1.7 2.6 0.00 0.00 0.00 85 1018.3
20220627105928 81 250 1.7 2.6 0.00 0.00 0.00 85 1018.4
20220627105831 81 250 0.9 2.6 0.00 0.00 0.00 85 1018.3
20220627105727 81 250 0.9 2.6 0.00 0.00 0.00 85 1018.3
20220627105627 81 250 1.7 2.6 0.00 0.00 0.00 85 1018.3
20220627105531 81 250 1.7 2.6 0.00 0.00 0.00 85 1018.3
20220627105428 81 250 0.9 2.6 0.00 0.00 0.00 85 1018.4
20220627105327 81 250 1.7 2.6 0.00 0.00 0.00 85 1018.4
20220627105230 81 250 1.7 2.6 0.00 0.00 0.00 85 1018.3
20220627105128 81 250 1.7 2.6 0.00 0.00 0.00 85 1018.4
20220627105027 81 250 1.7 2.6 0.00 0.00 0.00 85 1018.5
20220627104927 81 250 1.7 2.6 0.00 0.00 0.00 85 1018.4
20220627104828 81 250 0.9 2.6 0.00 0.00 0.00 85 1018.5
20220627104728 81 250 0.9 2.6 0.00 0.00 0.00 85 1018.5
20220627104630 81 250 0.9 2.6 0.00 0.00 0.00 85 1018.4
20220627104527 81 250 0.9 2.6 0.00 0.00 0.00 85 1018.5
20220627104428 81 250 1.7 2.6 0.00 0.00 0.00 85 1018.5
20220627104327 81 250 1.7 2.6 0.00 0.00 0.00 85 1018.5
20220627104229 81 250 1.7 2.6 0.00 0.00 0.00 85 1018.5
20220627104129 81 250 0.9 2.6 0.00 0.00 0.00 85 1018.5
20220627104028 82 250 1.7 3.5 0.00 0.00 0.00 85 1018.6
20220627103927 82 250 0.9 3.5 0.00 0.00 0.00 84 1018.5
20220627103827 82 250 0.9 3.5 0.00 0.00 0.00 84 1018.5
20220627103729 82 248 1.7 3.5 0.00 0.00 0.00 84 1018.5
20220627103628 82 248 1.7 3.5 0.00 0.00 0.00 84 1018.5
20220627103504 82 248 1.7 3.5 0.00 0.00 0.00 84 1018.4
20220627103407 82 248 1.7 3.5 0.00 0.00 0.00 84 1018.4
20220627103246 82 248 1.7 3.5 0.00 0.00 0.00 84 1018.3
20220627103142 82 248 1.7 3.5 0.00 0.00 0.00 84 1018.4
20220627103039 82 243 1.7 3.5 0.00 0.00 0.00 84 1018.4
20220627102940 82 243 2.6 3.5 0.00 0.00 0.00 84 1018.3
20220627102836 82 243 1.7 3.5 0.00 0.00 0.00 84 1018.4
20220627102735 82 243 1.7 3.5 0.00 0.00 0.00 84 1018.4
20220627102635 81 243 1.7 3.5 0.00 0.00 0.00 84 1018.3
20220627102533 81 243 1.7 3.5 0.00 0.00 0.00 84 1018.4
20220627102434 81 243 1.7 3.5 0.00 0.00 0.00 84 1018.4
20220627102334 81 243 1.7 3.5 0.00 0.00 0.00 84 1018.4
20220627102235 81 243 1.7 3.5 0.00 0.00 0.00 84 1018.4
20220627102134 81 238 1.7 2.6 0.00 0.00 0.00 84 1018.4
20220627102034 81 238 0.0 1.7 0.00 0.00 0.00 84 1018.4
20220627101936 81 238 0.0 0.0 0.00 0.00 0.00 84 1018.5
20220627101835 81 238 0.0 0.0 0.00 0.00 0.00 84 1018.4
20220627101735 81 238 0.0 0.0 0.00 0.00 0.00 84 1018.4
20220627101634 81 238 0.0 0.0 0.00 0.00 0.00 84 1018.5
20220627101535 82 238 0.0 0.0 0.00 0.00 0.00 83 1018.4
20220627101436 82 238 0.0 0.0 0.00 0.00 0.00 83 1018.4
20220627101335 82 238 0.0 0.0 0.00 0.00 0.00 83 1018.4
20220627101238 82 238 0.0 0.0 0.00 0.00 0.00 83 1018.3
20220627101135 82 238 0.0 0.0 0.00 0.00 0.00 83 1018.3
20220627101035 82 238 0.0 0.0 0.00 0.00 0.00 83 1018.4
20220627100935 82 238 0.0 0.0 0.00 0.00 0.00 83 1018.3
20220627100834 82 238 0.0 0.0 0.00 0.00 0.00 83 1018.3
20220627100734 82 238 0.0 0.0 0.00 0.00 0.00 83 1018.3
20220627100634 82 238 0.0 0.0 0.00 0.00 0.00 83 1018.4
20220627100535 82 238 0.0 0.0 0.00 0.00 0.00 83 1018.3
20220627100435 82 238 0.0 0.0 0.00 0.00 0.00 83 1018.3
20220627100334 82 238 0.0 0.9 0.00 0.00 0.00 83 1018.3
20220627100234 82 238 0.0 1.7 0.00 0.00 0.00 83 1018.3
20220627100135 82 238 0.0 1.7 0.00 0.00 0.00 83 1018.3
20220627100034 82 238 0.0 1.7 0.00 0.00 0.00 83 1018.3
20220627095936 82 238 0.0 1.7 0.00 0.00 0.00 83 1018.2
20220627095834 82 238 0.0 1.7 0.00 0.00 0.00 83 1018.3
20220627095737 82 238 0.0 1.7 0.00 0.00 0.00 83 1018.2
20220627095635 82 238 0.0 2.6 0.00 0.00 0.00 83 1018.3
20220627095535 81 238 0.0 2.6 0.00 0.00 0.00 83 1018.2
20220627095439 81 238 0.9 2.6 0.00 0.00 0.00 83 1018.3
20220627095335 81 238 0.9 2.6 0.00 0.00 0.00 84 1018.2
20220627095234 81 238 0.9 2.6 0.00 0.00 0.00 84 1018.3
20220627095136 81 238 0.9 2.6 0.00 0.00 0.00 84 1018.2
20220627095034 81 238 1.7 2.6 0.00 0.00 0.00 84 1018.2
20220627094935 81 238 1.7 2.6 0.00 0.00 0.00 84 1018.2
20220627094834 81 238 1.7 2.6 0.00 0.00 0.00 84 1018.2
20220627094734 81 238 1.7 2.6 0.00 0.00 0.00 85 1018.1
20220627094634 81 238 1.7 2.6 0.00 0.00 0.00 85 1018.1
20220627094533 81 238 1.7 2.6 0.00 0.00 0.00 85 1018.1
20220627094434 81 238 1.7 2.6 0.00 0.00 0.00 85 1018.1
20220627094335 80 238 0.9 1.7 0.00 0.00 0.00 85 1018.1
20220627094234 80 238 0.0 0.9 0.00 0.00 0.00 85 1018.1
20220627094134 80 238 0.0 0.0 0.00 0.00 0.00 85 1018.2
20220627094034 80 238 0.0 0.0 0.00 0.00 0.00 85 1018.2
20220627093935 80 238 0.0 0.0 0.00 0.00 0.00 85 1018.2
20220627093834 80 238 0.0 0.0 0.00 0.00 0.00 85 1018.2
20220627093736 80 238 0.0 0.0 0.00 0.00 0.00 85 1018.2
20220627093634 80 238 0.0 0.0 0.00 0.00 0.00 85 1018.2
20220627093535 80 238 0.0 0.0 0.00 0.00 0.00 85 1018.2
20220627093436 80 238 0.0 0.0 0.00 0.00 0.00 85 1018.2
20220627093334 80 238 0.0 0.9 0.00 0.00 0.00 85 1018.3
20220627093233 80 238 0.0 0.9 0.00 0.00 0.00 85 1018.3
20220627093134 80 238 0.0 1.7 0.00 0.00 0.00 85 1018.3
20220627093036 80 238 0.0 1.7 0.00 0.00 0.00 85 1018.3
20220627092934 80 238 0.0 1.7 0.00 0.00 0.00 85 1018.3
20220627092834 80 238 0.0 1.7 0.00 0.00 0.00 85 1018.3
20220627092735 80 238 0.0 1.7 0.00 0.00 0.00 85 1018.4
20220627092635 80 238 0.0 1.7 0.00 0.00 0.00 85 1018.3
20220627092535 80 238 0.0 1.7 0.00 0.00 0.00 85 1018.3
20220627092433 80 238 0.0 1.7 0.00 0.00 0.00 85 1018.3
20220627092337 80 238 0.9 1.7 0.00 0.00 0.00 85 1018.3
20220627092234 80 238 0.9 1.7 0.00 0.00 0.00 85 1018.3
20220627092134 80 238 0.0 1.7 0.00 0.00 0.00 85 1018.3
20220627092035 80 238 0.0 1.7 0.00 0.00 0.00 85 1018.3
20220627091934 80 238 0.0 1.7 0.00 0.00 0.00 85 1018.3
20220627091834 80 238 0.0 2.6 0.00 0.00 0.00 85 1018.3
20220627091734 80 238 0.9 2.6 0.00 0.00 0.00 85 1018.3
20220627091635 80 238 0.9 2.6 0.00 0.00 0.00 85 1018.4
20220627091535 80 238 0.9 2.6 0.00 0.00 0.00 85 1018.3
20220627091433 80 238 0.9 2.6 0.00 0.00 0.00 85 1018.3
20220627091335 80 238 0.9 2.6 0.00 0.00 0.00 85 1018.3
20220627091235 80 238 0.9 2.6 0.00 0.00 0.00 85 1018.4
20220627091135 80 238 0.9 2.6 0.00 0.00 0.00 85 1018.3
20220627091034 80 238 0.9 2.6 0.00 0.00 0.00 85 1018.3
20220627090936 80 238 0.9 2.6 0.00 0.00 0.00 85 1018.3
20220627090838 80 238 0.9 1.7 0.00 0.00 0.00 84 1018.3
20220627090734 80 238 0.0 1.7 0.00 0.00 0.00 84 1018.3
20220627090635 81 238 0.0 1.7 0.00 0.00 0.00 84 1018.3
20220627090536 81 238 0.9 1.7 0.00 0.00 0.00 84 1018.2
20220627090437 81 238 0.9 1.7 0.00 0.00 0.00 84 1018.4
20220627090336 81 238 0.9 1.7 0.00 0.00 0.00 84 1018.2
20220627090234 81 238 0.9 2.6 0.00 0.00 0.00 84 1018.2
20220627090133 81 238 0.9 2.6 0.00 0.00 0.00 84 1018.2
20220627090034 81 238 0.9 2.6 0.00 0.00 0.00 84 1018.2
20220627085940 81 238 0.9 2.6 0.00 0.00 0.00 84 1018.2
20220627085834 81 238 0.9 2.6 0.00 0.00 0.00 84 1018.2
20220627085735 81 238 0.9 2.6 0.00 0.00 0.00 84 1018.1
20220627085635 81 238 0.9 2.6 0.00 0.00 0.00 83 1018.2
20220627085535 81 238 1.7 2.6 0.00 0.00 0.00 83 1018.2
20220627085433 81 238 1.7 2.6 0.00 0.00 0.00 83 1018.2
20220627085335 81 238 0.9 2.6 0.00 0.00 0.00 83 1018.2
20220627085234 81 238 0.0 1.7 0.00 0.00 0.00 83 1018.3
20220627085134 82 238 0.9 1.7 0.00 0.00 0.00 83 1018.2
20220627085034 82 238 0.9 1.7 0.00 0.00 0.00 83 1018.2
20220627084935 82 238 0.9 1.7 0.00 0.00 0.00 83 1018.3
20220627084836 82 238 0.9 1.7 0.00 0.00 0.00 83 1018.3
20220627084736 81 238 1.7 1.7 0.00 0.00 0.00 83 1018.3
20220627084636 81 238 0.9 1.7 0.00 0.00 0.00 83 1018.2
20220627084535 81 238 0.0 0.9 0.00 0.00 0.00 83 1018.4
20220627084435 81 238 0.0 0.9 0.00 0.00 0.00 83 1018.3
20220627084334 81 238 0.0 0.9 0.00 0.00 0.00 83 1018.4
20220627084234 81 238 0.0 0.9 0.00 0.00 0.00 83 1018.4
20220627084135 81 238 0.0 0.9 0.00 0.00 0.00 84 1018.4
20220627084033 81 238 0.0 0.0 0.00 0.00 0.00 84 1018.5
20220627083935 81 238 0.0 0.0 0.00 0.00 0.00 84 1018.5
20220627083835 81 238 0.0 0.0 0.00 0.00 0.00 84 1018.5
20220627083734 81 238 0.0 0.0 0.00 0.00 0.00 84 1018.5
20220627083634 81 238 0.0 0.0 0.00 0.00 0.00 84 1018.4
20220627083535 81 238 0.0 0.0 0.00 0.00 0.00 84 1018.4
20220627083433 81 238 0.0 0.0 0.00 0.00 0.00 84 1018.4
20220627083334 81 238 0.0 0.9 0.00 0.00 0.00 84 1018.4
20220627083237 81 238 0.0 0.9 0.00 0.00 0.00 84 1018.4
20220627083134 81 238 0.0 0.9 0.00 0.00 0.00 84 1018.4
20220627083034 81 238 0.0 1.7 0.00 0.00 0.00 84 1018.4
20220627082937 81 238 0.0 1.7 0.00 0.00 0.00 84 1018.4
20220627082834 81 238 0.0 1.7 0.00 0.00 0.00 84 1018.5
20220627082734 81 238 0.0 1.7 0.00 0.00 0.00 85 1018.5
20220627082635 81 238 0.0 1.7 0.00 0.00 0.00 85 1018.6
20220627082535 81 238 0.0 1.7 0.00 0.00 0.00 85 1018.6
20220627082434 81 238 0.0 1.7 0.00 0.00 0.00 85 1018.6
20220627082333 81 238 0.9 1.7 0.00 0.00 0.00 85 1018.6
20220627082236 81 238 0.9 1.7 0.00 0.00 0.00 85 1018.6
20220627082138 81 238 0.9 1.7 0.00 0.00 0.00 85 1018.6
20220627082034 81 238 0.9 1.7 0.00 0.00 0.00 85 1018.7
20220627081933 81 238 1.7 1.7 0.00 0.00 0.00 85 1018.5
20220627081833 81 238 0.9 1.7 0.00 0.00 0.00 85 1018.6
20220627081734 81 238 0.9 2.6 0.00 0.00 0.00 85 1018.7
20220627081634 81 238 0.9 2.6 0.00 0.00 0.00 85 1018.7
20220627081534 81 238 0.0 2.6 0.00 0.00 0.00 85 1018.7
20220627081435 81 238 0.0 2.6 0.00 0.00 0.00 85 1018.7
20220627081334 81 238 0.0 2.6 0.00 0.00 0.00 84 1018.8
20220627081234 81 238 0.0 2.6 0.00 0.00 0.00 84 1018.8
20220627081134 81 238 0.9 2.6 0.00 0.00 0.00 84 1018.7
20220627081034 81 238 0.9 2.6 0.00 0.00 0.00 84 1018.7
20220627080936 81 238 0.9 2.6 0.00 0.00 0.00 84 1018.6
20220627080836 81 238 1.7 2.6 0.00 0.00 0.00 84 1018.5
20220627080734 81 238 1.7 1.7 0.00 0.00 0.00 85 1018.5
20220627080634 81 238 1.7 1.7 0.00 0.00 0.00 85 1018.5
20220627080535 81 238 0.9 1.7 0.00 0.00 0.00 85 1018.5
20220627080436 81 238 0.9 1.7 0.00 0.00 0.00 85 1018.5
20220627080335 81 238 0.9 1.7 0.00 0.00 0.00 85 1018.4
20220627080234 81 238 0.0 0.9 0.00 0.00 0.00 86 1018.5
20220627080136 81 238 0.0 0.9 0.00 0.00 0.00 86 1018.6
20220627080033 81 238 0.0 0.9 0.00 0.00 0.00 86 1018.5
20220627075933 81 238 0.0 0.9 0.00 0.00 0.00 86 1018.5
20220627075835 80 238 0.0 0.9 0.00 0.00 0.00 86 1018.6
20220627075735 81 238 0.0 0.9 0.00 0.00 0.00 86 1018.6
20220627075634 80 238 0.0 0.9 0.00 0.00 0.00 86 1018.7
20220627075534 80 238 0.0 0.9 0.00 0.00 0.00 86 1018.7
20220627075435 80 238 0.0 0.9 0.00 0.00 0.00 86 1018.8
20220627075335 80 238 0.0 0.9 0.00 0.00 0.00 86 1018.7
20220627075234 81 238 0.0 0.9 0.00 0.00 0.00 86 1018.6
20220627075134 81 238 0.0 0.9 0.00 0.00 0.00 86 1018.7
20220627075033 81 238 0.9 0.9 0.00 0.00 0.00 85 1018.7
20220627074934 81 238 0.9 0.9 0.00 0.00 0.00 85 1018.8
20220627074835 81 238 0.0 0.9 0.00 0.00 0.00 85 1018.7
20220627074734 81 238 0.0 0.9 0.00 0.00 0.00 85 1018.7
20220627074636 81 238 0.9 0.9 0.00 0.00 0.00 85 1018.7
20220627074535 81 238 0.9 1.7 0.00 0.00 0.00 85 1018.7
20220627074435 81 238 0.9 1.7 0.00 0.00 0.00 85 1018.6
20220627074336 81 238 0.9 1.7 0.00 0.00 0.00 84 1018.6
20220627074238 81 238 0.9 1.7 0.00 0.00 0.00 84 1018.6
20220627074138 82 238 0.0 1.7 0.00 0.00 0.00 84 1018.6
20220627074034 82 238 0.0 1.7 0.00 0.00 0.00 83 1018.6
20220627073935 82 238 0.0 1.7 0.00 0.00 0.00 82 1018.6
20220627073835 82 238 0.0 1.7 0.00 0.00 0.00 82 1018.6
20220627073733 82 238 0.0 1.7 0.00 0.00 0.00 83 1018.6
20220627073635 82 238 0.9 1.7 0.00 0.00 0.00 83 1018.6
20220627073537 82 238 0.9 1.7 0.00 0.00 0.00 83 1018.7
20220627073435 82 238 0.9 1.7 0.00 0.00 0.00 83 1018.6
20220627073334 82 238 0.9 1.7 0.00 0.00 0.00 83 1018.6
20220627073235 82 238 0.9 1.7 0.00 0.00 0.00 84 1018.6
20220627073134 82 238 0.9 1.7 0.00 0.00 0.00 84 1018.6
20220627073033 82 238 0.9 1.7 0.00 0.00 0.00 84 1018.7
20220627072933 82 238 0.0 0.9 0.00 0.00 0.00 85 1018.6
20220627072834 82 238 0.0 1.7 0.00 0.00 0.00 85 1018.6
20220627072735 81 238 0.0 1.7 0.00 0.00 0.00 85 1018.7
20220627072635 81 238 0.0 1.7 0.00 0.00 0.00 85 1018.7
20220627072533 81 238 0.0 1.7 0.00 0.00 0.00 84 1018.8
20220627072434 81 238 0.0 1.7 0.00 0.00 0.00 84 1018.7
20220627072335 82 238 0.0 1.7 0.00 0.00 0.00 84 1018.8
20220627072234 82 238 0.0 1.7 0.00 0.00 0.00 83 1018.8
20220627072134 82 238 0.0 1.7 0.00 0.00 0.00 83 1018.8
20220627072035 83 238 0.9 1.7 0.00 0.00 0.00 82 1018.9
20220627071935 83 238 0.9 1.7 0.00 0.00 0.00 82 1018.8
20220627071834 83 238 0.9 1.7 0.00 0.00 0.00 82 1018.7
20220627071735 83 238 0.9 1.7 0.00 0.00 0.00 82 1018.7
20220627071635 83 238 0.9 1.7 0.00 0.00 0.00 82 1018.8
20220627071535 83 238 0.9 1.7 0.00 0.00 0.00 82 1018.8
20220627071433 83 238 0.9 1.7 0.00 0.00 0.00 82 1018.7
20220627071334 83 238 0.9 1.7 0.00 0.00 0.00 82 1018.7
20220627071234 83 238 0.9 1.7 0.00 0.00 0.00 82 1018.7
20220627071138 83 238 0.9 1.7 0.00 0.00 0.00 82 1018.8
20220627071035 83 238 0.9 1.7 0.00 0.00 0.00 83 1018.8
20220627070934 83 238 0.9 1.7 0.00 0.00 0.00 83 1018.8
20220627070834 82 238 0.9 1.7 0.00 0.00 0.00 83 1018.9
20220627070735 82 238 0.9 1.7 0.00 0.00 0.00 83 1018.9
20220627070637 82 238 0.9 1.7 0.00 0.00 0.00 83 1018.8
20220627070535 82 238 0.0 1.7 0.00 0.00 0.00 82 1018.8
20220627070434 83 238 0.0 1.7 0.00 0.00 0.00 82 1018.8
20220627070334 83 238 0.0 1.7 0.00 0.00 0.00 82 1018.8
20220627070234 83 238 0.0 1.7 0.00 0.00 0.00 82 1018.8
20220627070136 83 238 0.0 1.7 0.00 0.00 0.00 82 1018.7
20220627070038 83 238 0.9 1.7 0.00 0.00 0.00 82 1018.7
20220627065935 83 238 0.9 1.7 0.00 0.00 0.00 82 1018.7
20220627065834 83 238 0.0 1.7 0.00 0.00 0.00 82 1018.7
20220627065734 83 238 0.0 0.9 0.00 0.00 0.00 82 1018.7
20220627065635 83 238 0.0 0.9 0.00 0.00 0.00 82 1018.8
20220627065535 83 238 0.0 0.9 0.00 0.00 0.00 82 1018.8
20220627065434 83 238 0.0 0.9 0.00 0.00 0.00 82 1018.9
20220627065334 83 238 0.0 0.9 0.00 0.00 0.00 81 1018.9
20220627065235 83 238 0.0 0.9 0.00 0.00 0.00 81 1018.8
20220627065134 83 238 0.0 0.9 0.00 0.00 0.00 80 1018.9
20220627065033 83 238 0.0 0.9 0.00 0.00 0.00 80 1018.8
20220627064935 83 238 0.0 0.9 0.00 0.00 0.00 80 1018.8
20220627064833 84 238 0.0 1.7 0.00 0.00 0.00 80 1018.8
20220627064734 84 238 0.0 1.7 0.00 0.00 0.00 80 1018.8
20220627064635 84 238 0.9 2.6 0.00 0.00 0.00 79 1018.8
20220627064539 84 238 0.9 2.6 0.00 0.00 0.00 80 1018.9
20220627064434 84 238 0.0 2.6 0.00 0.00 0.00 81 1019.0
20220627064346 83 238 0.0 2.6 0.00 0.00 0.00 81 1019.0
20220627064237 83 238 0.0 2.6 0.00 0.00 0.00 81 1019.1
20220627064137 83 238 0.0 2.6 0.00 0.00 0.00 81 1019.1
20220627064034 83 238 0.0 2.6 0.00 0.00 0.00 81 1019.2
20220627063933 83 238 0.9 2.6 0.00 0.00 0.00 80 1019.1
20220627063834 83 238 1.7 2.6 0.00 0.00 0.00 80 1019.2
20220627063734 83 238 1.7 2.6 0.00 0.00 0.00 80 1019.1
20220627063635 83 238 1.7 2.6 0.00 0.00 0.00 80 1019.1
20220627063535 83 238 0.9 2.6 0.00 0.00 0.00 80 1019.0
20220627063433 83 238 0.0 1.7 0.00 0.00 0.00 80 1019.0
20220627063334 83 238 0.0 1.7 0.00 0.00 0.00 80 1018.9
20220627063235 83 238 0.0 1.7 0.00 0.00 0.00 80 1018.9
20220627063134 83 238 0.0 1.7 0.00 0.00 0.00 79 1018.9
20220627063034 83 238 0.0 1.7 0.00 0.00 0.00 79 1018.9
20220627062939 83 238 0.0 1.7 0.00 0.00 0.00 79 1018.9
20220627062834 83 238 0.0 1.7 0.00 0.00 0.00 79 1018.8
20220627062733 83 238 0.9 1.7 0.00 0.00 0.00 79 1018.8
20220627062634 83 238 0.9 1.7 0.00 0.00 0.00 79 1018.7
20220627062537 83 238 0.0 0.9 0.00 0.00 0.00 79 1018.7
20220627062434 84 238 0.0 0.0 0.00 0.00 0.00 79 1018.8
20220627062335 84 238 0.0 0.9 0.00 0.00 0.00 79 1018.8
20220627062234 84 238 0.0 0.9 0.00 0.00 0.00 79 1018.7
20220627062135 84 238 0.0 0.9 0.00 0.00 0.00 79 1018.8
20220627062034 84 238 0.0 0.9 0.00 0.00 0.00 79 1018.7
20220627061934 84 238 0.0 0.9 0.00 0.00 0.00 79 1018.8
20220627061834 84 238 0.0 1.7 0.00 0.00 0.00 79 1018.8
20220627061735 84 238 0.0 1.7 0.00 0.00 0.00 78 1018.8
20220627061634 84 238 0.0 1.7 0.00 0.00 0.00 78 1018.9
20220627061533 84 238 0.0 1.7 0.00 0.00 0.00 78 1018.9
20220627061434 84 238 0.0 1.7 0.00 0.00 0.00 78 1018.9
20220627061335 84 238 0.0 1.7 0.00 0.00 0.00 78 1018.9
20220627061234 84 238 0.0 1.7 0.00 0.00 0.00 78 1018.9
20220627061135 84 238 0.0 2.6 0.00 0.00 0.00 78 1018.9
20220627061034 84 238 0.0 2.6 0.00 0.00 0.00 78 1018.9
20220627060934 84 238 0.0 2.6 0.00 0.00 0.00 78 1018.8
20220627060834 84 238 0.0 2.6 0.00 0.00 0.00 78 1018.8
20220627060735 84 238 0.9 2.6 0.00 0.00 0.00 78 1018.8
20220627060635 84 238 0.9 2.6 0.00 0.00 0.00 77 1018.8
20220627060534 84 238 0.9 2.6 0.00 0.00 0.00 77 1018.8
20220627060434 84 238 0.9 2.6 0.00 0.00 0.00 77 1018.8
20220627060335 84 238 1.7 2.6 0.00 0.00 0.00 77 1018.8
20220627060234 84 238 1.7 4.3 0.00 0.00 0.00 77 1018.7
20220627060134 85 238 0.9 4.3 0.00 0.00 0.00 77 1018.7
20220627060034 84 238 0.9 5.2 0.00 0.00 0.00 77 1018.6
20220627055935 85 238 1.7 5.2 0.00 0.00 0.00 77 1018.7
20220627055836 85 238 1.7 5.2 0.00 0.00 0.00 77 1018.7
20220627055734 85 238 1.7 5.2 0.00 0.00 0.00 77 1018.6
20220627055635 85 238 1.7 5.2 0.00 0.00 0.00 77 1018.6
20220627055538 84 238 1.7 5.2 0.00 0.00 0.00 77 1018.5
20220627055435 84 238 1.7 5.2 0.00 0.00 0.00 77 1018.5
20220627055334 84 237 3.5 5.2 0.00 0.00 0.00 77 1018.5
20220627055234 84 234 3.5 5.2 0.00 0.00 0.00 77 1018.4
20220627055135 85 228 3.5 5.2 0.00 0.00 0.00 77 1018.6
20220627055033 85 234 3.5 4.3 0.00 0.00 0.00 77 1018.5
20220627054934 85 243 3.5 4.3 0.00 0.00 0.00 77 1018.5
20220627054836 85 227 3.5 4.3 0.00 0.00 0.00 77 1018.5
20220627054737 85 227 2.6 3.5 0.00 0.00 0.00 77 1018.5
20220627054633 85 227 1.7 4.3 0.00 0.00 0.00 77 1018.5
20220627054533 85 227 1.7 4.3 0.00 0.00 0.00 77 1018.5
20220627054435 85 227 1.7 4.3 0.00 0.00 0.00 77 1018.5
20220627054334 85 227 1.7 6.1 0.00 0.00 0.00 77 1018.4
20220627054234 85 227 2.6 6.1 0.00 0.00 0.00 77 1018.5
20220627054135 85 227 2.6 6.1 0.00 0.00 0.00 77 1018.5
20220627054034 85 227 2.6 6.1 0.00 0.00 0.00 77 1018.4
20220627053935 85 227 2.6 6.1 0.00 0.00 0.00 77 1018.5
20220627053836 85 228 2.6 6.1 0.00 0.00 0.00 77 1018.5
20220627053734 85 228 2.6 6.1 0.00 0.00 0.00 77 1018.5
20220627053634 84 230 2.6 6.1 0.00 0.00 0.00 77 1018.4
20220627053534 84 230 3.5 6.1 0.00 0.00 0.00 77 1018.5
20220627053435 84 230 3.5 6.1 0.00 0.00 0.00 77 1018.5
20220627053334 84 219 2.6 5.2 0.00 0.00 0.00 77 1018.5
20220627053234 84 219 3.5 5.2 0.00 0.00 0.00 77 1018.4
20220627053138 84 219 4.3 5.2 0.00 0.00 0.00 77 1018.4
20220627053035 84 228 4.3 6.1 0.00 0.00 0.00 77 1018.4
20220627052934 84 203 3.5 6.1 0.00 0.00 0.00 77 1018.4
20220627052834 84 209 2.6 6.1 0.00 0.00 0.00 77 1018.4
20220627052735 84 209 2.6 6.1 0.00 0.00 0.00 77 1018.4
20220627052634 84 209 2.6 6.1 0.00 0.00 0.00 77 1018.4
20220627052534 84 212 2.6 6.1 0.00 0.00 0.00 77 1018.3
20220627052438 84 214 2.6 6.1 0.00 0.00 0.00 77 1018.3
20220627052336 84 214 3.5 6.1 0.00 0.00 0.00 77 1018.4
20220627052233 84 216 4.3 6.1 0.00 0.00 0.00 77 1018.4
20220627052134 84 190 4.3 6.1 0.00 0.00 0.00 77 1018.4
20220627052034 84 203 4.3 6.1 0.00 0.00 0.00 77 1018.3
20220627051934 84 190 4.3 6.1 0.00 0.00 0.00 77 1018.3
20220627051835 84 200 3.5 5.2 0.00 0.00 0.00 77 1018.3
20220627051736 84 197 2.6 5.2 0.00 0.00 0.00 77 1018.2
20220627051634 84 200 3.5 5.2 0.00 0.00 0.00 77 1018.2
20220627051533 84 196 3.5 5.2 0.00 0.00 0.00 77 1018.3
20220627051435 84 197 3.5 5.2 0.00 0.00 0.00 77 1018.3
20220627051335 84 195 3.5 5.2 0.00 0.00 0.00 77 1018.3
20220627051234 84 193 3.5 5.2 0.00 0.00 0.00 76 1018.2
20220627051134 84 197 3.5 5.2 0.00 0.00 0.00 76 1018.2
20220627051038 84 195 3.5 5.2 0.00 0.00 0.00 76 1018.3
20220627050934 84 199 3.5 6.1 0.00 0.00 0.00 76 1018.3
20220627050833 84 197 3.5 6.1 0.00 0.00 0.00 76 1018.3
20220627050738 84 199 3.5 6.1 0.00 0.00 0.00 76 1018.3
20220627050634 84 202 3.5 6.1 0.00 0.00 0.00 76 1018.3
20220627050533 84 202 3.5 6.1 0.00 0.00 0.00 76 1018.2
20220627050433 84 190 3.5 6.1 0.00 0.00 0.00 76 1018.3
20220627050338 84 204 3.5 6.1 0.00 0.00 0.00 76 1018.3
20220627050234 84 217 3.5 6.1 0.00 0.00 0.00 76 1018.3
20220627050134 84 216 3.5 7.8 0.00 0.00 0.00 76 1018.3
20220627050034 84 189 4.3 7.8 0.00 0.00 0.00 76 1018.3
20220627045934 84 212 3.5 7.8 0.00 0.00 0.00 76 1018.3
20220627045836 84 213 3.5 7.8 0.00 0.00 0.00 76 1018.2
20220627045734 84 216 4.3 7.8 0.00 0.00 0.00 76 1018.3
20220627045635 84 200 4.3 7.8 0.00 0.00 0.00 76 1018.3
20220627045534 84 204 4.3 7.8 0.00 0.00 0.00 75 1018.3
20220627045437 84 200 4.3 7.8 0.00 0.00 0.00 75 1018.3
20220627045335 84 212 5.2 7.8 0.00 0.00 0.00 75 1018.3
20220627045234 84 185 4.3 7.8 0.00 0.00 0.00 75 1018.3
20220627045134 84 197 4.3 7.8 0.00 0.00 0.00 75 1018.3
20220627045035 85 175 4.3 7.8 0.00 0.00 0.00 75 1018.3
20220627044934 85 199 5.2 7.8 0.00 0.00 0.00 75 1018.3
20220627044836 85 183 5.2 7.8 0.00 0.00 0.00 75 1018.3
20220627044734 85 185 4.3 6.1 0.00 0.00 0.00 75 1018.3
20220627044637 85 197 4.3 6.1 0.00 0.00 0.00 75 1018.4
20220627044536 85 188 4.3 6.1 0.00 0.00 0.00 75 1018.4
20220627044434 85 185 3.5 6.1 0.00 0.00 0.00 75 1018.4
20220627044335 85 195 3.5 7.8 0.00 0.00 0.00 75 1018.4
20220627044233 85 195 4.3 7.8 0.00 0.00 0.00 75 1018.5
20220627044134 85 196 4.3 7.8 0.00 0.00 0.00 75 1018.5
20220627044035 85 189 3.5 7.8 0.00 0.00 0.00 75 1018.5
20220627043935 85 190 3.5 7.8 0.00 0.00 0.00 74 1018.5
20220627043835 85 190 4.3 7.8 0.00 0.00 0.00 74 1018.5
20220627043733 85 189 4.3 7.8 0.00 0.00 0.00 74 1018.6
20220627043635 85 189 4.3 7.8 0.00 0.00 0.00 74 1018.5
20220627043534 85 183 4.3 7.8 0.00 0.00 0.00 74 1018.5
20220627043435 85 197 4.3 7.8 0.00 0.00 0.00 74 1018.3
20220627043334 85 207 4.3 5.2 0.00 0.00 0.00 74 1018.3
20220627043235 85 204 4.3 5.2 0.00 0.00 0.00 74 1018.4
20220627043136 85 199 4.3 5.2 0.00 0.00 0.00 74 1018.3
20220627043034 85 185 3.5 5.2 0.00 0.00 0.00 74 1018.4
20220627042938 85 180 3.5 5.2 0.00 0.00 0.00 74 1018.4
20220627042835 85 179 2.6 5.2 0.00 0.00 0.00 74 1018.4
20220627042733 85 179 2.6 5.2 0.00 0.00 0.00 74 1018.4
20220627042635 85 180 3.5 5.2 0.00 0.00 0.00 74 1018.4
20220627042533 85 175 3.5 5.2 0.00 0.00 0.00 74 1018.4
20220627042436 85 169 3.5 5.2 0.00 0.00 0.00 74 1018.4
20220627042334 85 202 3.5 5.2 0.00 0.00 0.00 74 1018.5
20220627042237 85 176 3.5 4.3 0.00 0.00 0.00 74 1018.5
20220627042136 85 175 2.6 4.3 0.00 0.00 0.00 74 1018.5
20220627042033 85 185 2.6 4.3 0.00 0.00 0.00 74 1018.6
20220627041935 85 185 2.6 4.3 0.00 0.00 0.00 74 1018.5
20220627041835 85 185 2.6 4.3 0.00 0.00 0.00 74 1018.5
20220627041734 85 195 2.6 4.3 0.00 0.00 0.00 74 1018.4
20220627041635 85 185 2.6 4.3 0.00 0.00 0.00 74 1018.5
20220627041534 85 180 2.6 4.3 0.00 0.00 0.00 74 1018.6
20220627041434 85 180 2.6 4.3 0.00 0.00 0.00 74 1018.5
20220627041333 85 178 2.6 4.3 0.00 0.00 0.00 74 1018.6
20220627041234 85 178 2.6 4.3 0.00 0.00 0.00 74 1018.5
20220627041133 85 178 2.6 4.3 0.00 0.00 0.00 74 1018.5
20220627041034 85 178 2.6 4.3 0.00 0.00 0.00 74 1018.5
20220627040935 85 176 1.7 4.3 0.00 0.00 0.00 74 1018.4
20220627040835 85 176 1.7 4.3 0.00 0.00 0.00 74 1018.4
20220627040734 85 176 2.6 4.3 0.00 0.00 0.00 73 1018.4
20220627040634 85 176 2.6 4.3 0.00 0.00 0.00 73 1018.4
20220627040534 85 176 1.7 4.3 0.00 0.00 0.00 73 1018.5
20220627040435 85 176 1.7 4.3 0.00 0.00 0.00 73 1018.3
20220627040336 85 176 2.6 4.3 0.00 0.00 0.00 73 1018.3
20220627040238 85 176 2.6 4.3 0.00 0.00 0.00 73 1018.3
20220627040133 85 175 2.6 3.5 0.00 0.00 0.00 73 1018.3
20220627040036 85 175 2.6 3.5 0.00 0.00 0.00 73 1018.3
20220627035933 85 144 2.6 3.5 0.00 0.00 0.00 74 1018.3
20220627035833 85 144 2.6 3.5 0.00 0.00 0.00 73 1018.3
20220627035734 85 144 1.7 3.5 0.00 0.00 0.00 73 1018.3
20220627035634 85 144 1.7 3.5 0.00 0.00 0.00 73 1018.4
20220627035535 85 144 2.6 3.5 0.00 0.00 0.00 73 1018.4
20220627035433 85 144 1.7 3.5 0.00 0.00 0.00 73 1018.4
20220627035333 85 144 1.7 3.5 0.00 0.00 0.00 74 1018.3
20220627035238 85 144 1.7 3.5 0.00 0.00 0.00 73 1018.4
20220627035136 85 144 1.7 3.5 0.00 0.00 0.00 73 1018.3
20220627035033 86 144 1.7 3.5 0.00 0.00 0.00 73 1018.2
20220627034934 86 144 2.6 3.5 0.00 0.00 0.00 73 1018.3
20220627034836 86 144 2.6 3.5 0.00 0.00 0.00 73 1018.3
20220627034734 86 144 2.6 3.5 0.00 0.00 0.00 73 1018.2
20220627034634 86 144 1.7 3.5 0.00 0.00 0.00 73 1018.3
20220627034535 86 137 1.7 3.5 0.00 0.00 0.00 73 1018.2
20220627034435 86 135 1.7 3.5 0.00 0.00 0.00 73 1018.2
20220627034333 86 135 1.7 3.5 0.00 0.00 0.00 73 1018.1
20220627034233 86 133 1.7 4.3 0.00 0.00 0.00 73 1018.2
20220627034135 86 133 1.7 5.2 0.00 0.00 0.00 73 1018.2
20220627034034 86 127 1.7 5.2 0.00 0.00 0.00 73 1018.1
20220627033933 86 127 1.7 5.2 0.00 0.00 0.00 73 1018.1
20220627033834 86 123 1.7 5.2 0.00 0.00 0.00 72 1018.2
20220627033734 86 121 1.7 5.2 0.00 0.00 0.00 73 1018.2
20220627033633 86 121 1.7 5.2 0.00 0.00 0.00 72 1018.1
20220627033536 86 117 2.6 6.1 0.00 0.00 0.00 72 1018.1
20220627033434 86 117 3.5 6.1 0.00 0.00 0.00 72 1018.1
20220627033333 86 147 3.5 6.1 0.00 0.00 0.00 72 1018.2
20220627033234 86 124 3.5 6.1 0.00 0.00 0.00 72 1018.0
20220627033133 86 117 2.6 6.1 0.00 0.00 0.00 73 1018.1
20220627033034 86 99 3.5 7.8 0.00 0.00 0.00 72 1018.1
20220627032933 86 104 2.6 7.8 0.00 0.00 0.00 72 1018.1
20220627032834 86 73 2.6 7.8 0.00 0.00 0.00 72 1018.0
20220627032733 86 78 3.5 7.8 0.00 0.00 0.00 72 1018.0
20220627032634 86 100 4.3 9.6 0.00 0.00 0.00 72 1018.1
20220627032535 86 99 3.5 12.2 0.00 0.00 0.00 72 1018.1
20220627032434 86 92 3.5 12.2 0.00 0.00 0.00 72 1018.0
20220627032333 86 131 2.6 12.2 0.00 0.00 0.00 72 1018.0
20220627032233 86 149 4.3 12.2 0.00 0.00 0.00 72 1018.0
20220627032135 86 159 4.3 12.2 0.00 0.00 0.00 72 1017.9
20220627032034 86 162 4.3 12.2 0.00 0.00 0.00 72 1017.8
20220627031935 86 183 4.3 12.2 0.00 0.00 0.00 72 1017.7
20220627031833 86 175 5.2 12.2 0.00 0.00 0.00 72 1017.5
20220627031737 86 193 7.0 12.2 0.00 0.00 0.00 71 1017.5
20220627031635 86 178 7.0 12.2 0.00 0.00 0.00 71 1017.4
20220627031534 86 214 6.1 11.3 0.00 0.00 0.00 71 1017.3
20220627031434 86 169 7.0 11.3 0.00 0.00 0.00 71 1017.4
20220627031334 86 212 7.8 11.3 0.00 0.00 0.00 71 1017.3
20220627031233 86 226 7.8 11.3 0.00 0.00 0.00 71 1017.3
20220627031135 86 206 7.0 11.3 0.00 0.00 0.00 71 1017.4
20220627031035 86 214 7.8 11.3 0.00 0.00 0.00 71 1017.3
20220627030934 86 207 7.8 11.3 0.00 0.00 0.00 71 1017.4
20220627030834 86 182 7.8 11.3 0.00 0.00 0.00 71 1017.4
20220627030735 87 180 7.0 10.4 0.00 0.00 0.00 71 1017.3
20220627030634 87 217 7.0 10.4 0.00 0.00 0.00 71 1017.3
20220627030534 87 186 6.1 9.6 0.00 0.00 0.00 71 1017.2
20220627030436 87 193 6.1 8.7 0.00 0.00 0.00 70 1017.2
20220627030334 87 152 6.1 8.7 0.00 0.00 0.00 70 1017.2
20220627030233 87 199 5.2 8.7 0.00 0.00 0.00 70 1017.2
20220627030133 87 186 4.3 10.4 0.00 0.00 0.00 70 1017.2
20220627030034 87 213 5.2 10.4 0.00 0.00 0.00 70 1017.2
20220627025934 87 199 5.2 10.4 0.00 0.00 0.00 70 1017.3
20220627025835 87 189 5.2 10.4 0.00 0.00 0.00 69 1017.2
20220627025735 87 182 6.1 11.3 0.00 0.00 0.00 69 1017.2
20220627025633 87 189 6.1 11.3 0.00 0.00 0.00 69 1017.3
20220627025536 87 179 5.2 11.3 0.00 0.00 0.00 69 1017.2
20220627025435 87 180 5.2 11.3 0.00 0.00 0.00 69 1017.2
20220627025333 87 223 6.1 11.3 0.00 0.00 0.00 68 1017.2
20220627025235 87 202 7.0 11.3 0.00 0.00 0.00 68 1017.1
20220627025134 87 192 7.0 11.3 0.00 0.00 0.00 68 1017.1
20220627025034 87 197 7.0 11.3 0.00 0.00 0.00 67 1017.0
20220627024933 87 195 6.1 11.3 0.00 0.00 0.00 67 1016.9
20220627024833 87 196 6.1 11.3 0.00 0.00 0.00 67 1016.9
20220627024735 87 192 5.2 9.6 0.00 0.00 0.00 67 1016.9
20220627024634 87 190 5.2 9.6 0.00 0.00 0.00 66 1017.0
20220627024533 87 196 5.2 9.6 0.00 0.00 0.00 66 1017.0
20220627024433 87 183 5.2 9.6 0.00 0.00 0.00 66 1017.1
20220627024337 87 196 5.2 9.6 0.00 0.00 0.00 66 1017.2
20220627024236 87 197 5.2 9.6 0.00 0.00 0.00 66 1017.1
20220627024134 87 186 6.1 9.6 0.00 0.00 0.00 65 1017.1
20220627024039 87 196 5.2 11.3 0.00 0.00 0.00 65 1017.0
20220627023934 87 186 7.0 11.3 0.00 0.00 0.00 65 1017.1
20220627023833 87 189 7.0 11.3 0.00 0.00 0.00 65 1017.0
20220627023735 87 210 5.2 11.3 0.00 0.00 0.00 64 1017.0
20220627023638 88 185 5.2 11.3 0.00 0.00 0.00 64 1016.8
20220627023534 88 186 4.3 11.3 0.00 0.00 0.00 64 1017.0
20220627023433 88 189 4.3 11.3 0.00 0.00 0.00 64 1016.9
20220627023338 88 199 4.3 11.3 0.00 0.00 0.00 64 1016.9
20220627023234 88 193 6.1 11.3 0.00 0.00 0.00 63 1016.9
20220627023133 88 193 7.0 11.3 0.00 0.00 0.00 63 1016.9
20220627023035 88 197 6.1 11.3 0.00 0.00 0.00 63 1016.9
20220627022935 88 186 6.1 11.3 0.00 0.00 0.00 63 1016.9
20220627022834 88 197 7.0 11.3 0.00 0.00 0.00 62 1016.8
20220627022734 88 200 7.0 11.3 0.00 0.00 0.00 62 1016.8
20220627022635 88 188 7.0 11.3 0.00 0.00 0.00 62 1016.8
20220627022534 88 193 7.0 11.3 0.00 0.00 0.00 62 1016.9
20220627022435 88 178 7.0 11.3 0.00 0.00 0.00 61 1016.8
20220627022335 88 199 5.2 11.3 0.00 0.00 0.00 61 1016.9
20220627022237 88 183 4.3 8.7 0.00 0.00 0.00 61 1016.9
20220627022134 88 203 4.3 8.7 0.00 0.00 0.00 61 1016.9
20220627022034 88 183 5.2 9.6 0.00 0.00 0.00 61 1016.9
20220627021934 88 178 5.2 9.6 0.00 0.00 0.00 61 1016.9
20220627021833 89 190 4.3 10.4 0.00 0.00 0.00 60 1016.8
20220627021733 89 188 5.2 10.4 0.00 0.00 0.00 61 1016.9
20220627021635 89 185 5.2 10.4 0.00 0.00 0.00 61 1016.9
20220627021534 89 176 5.2 10.4 0.00 0.00 0.00 60 1016.8
20220627021435 89 188 5.2 10.4 0.00 0.00 0.00 60 1016.9
20220627021333 89 189 5.2 10.4 0.00 0.00 0.00 60 1016.8
20220627021235 89 197 5.2 10.4 0.00 0.00 0.00 60 1016.8
20220627021135 89 210 7.0 10.4 0.00 0.00 0.00 60 1016.9
20220627021034 89 188 7.0 10.4 0.00 0.00 0.00 60 1016.9
20220627020935 89 190 6.1 10.4 0.00 0.00 0.00 61 1016.9
20220627020833 89 221 5.2 10.4 0.00 0.00 0.00 61 1016.9
20220627020733 89 202 6.1 10.4 0.00 0.00 0.00 61 1016.9
20220627020635 89 213 5.2 10.4 0.00 0.00 0.00 61 1016.8
20220627020534 89 180 6.1 10.4 0.00 0.00 0.00 60 1016.9
20220627020435 89 207 5.2 10.4 0.00 0.00 0.00 60 1016.8
20220627020334 89 185 6.1 10.4 0.00 0.00 0.00 60 1016.7
20220627020236 89 199 6.1 10.4 0.00 0.00 0.00 60 1016.7
20220627020134 89 200 6.1 11.3 0.00 0.00 0.00 60 1016.7
20220627020034 89 178 6.1 11.3 0.00 0.00 0.00 59 1016.7
20220627015934 89 203 5.2 11.3 0.00 0.00 0.00 59 1016.7
20220627015835 89 185 5.2 11.3 0.00 0.00 0.00 59 1016.7
20220627015733 89 182 6.1 11.3 0.00 0.00 0.00 59 1016.7
20220627015640 90 185 6.1 11.3 0.00 0.00 0.00 59 1016.7
20220627015535 90 195 7.0 11.3 0.00 0.00 0.00 59 1016.6
20220627015435 90 173 7.0 11.3 0.00 0.00 0.00 59 1016.6
20220627015333 90 192 7.8 11.3 0.00 0.00 0.00 59 1016.7
20220627015237 90 192 7.8 11.3 0.00 0.00 0.00 59 1016.6
20220627015134 90 172 7.0 9.6 0.00 0.00 0.00 59 1016.7
20220627015034 90 188 5.2 9.6 0.00 0.00 0.00 59 1016.6
20220627014938 90 212 5.2 9.6 0.00 0.00 0.00 59 1016.7
20220627014835 90 175 4.3 9.6 0.00 0.00 0.00 59 1016.6
20220627014733 90 183 4.3 9.6 0.00 0.00 0.00 59 1016.6
20220627014634 90 172 5.2 10.4 0.00 0.00 0.00 58 1016.6
20220627014535 90 185 5.2 10.4 0.00 0.00 0.00 58 1016.6
20220627014436 90 206 4.3 10.4 0.00 0.00 0.00 58 1016.7
20220627014334 90 189 5.2 10.4 0.00 0.00 0.00 58 1016.7
20220627014235 90 168 6.1 10.4 0.00 0.00 0.00 58 1016.6
20220627014134 91 186 5.2 10.4 0.00 0.00 0.00 58 1016.6
20220627014029 91 188 4.3 10.4 0.00 0.00 0.00 58 1016.5
20220627013927 91 193 4.3 10.4 0.00 0.00 0.00 57 1016.7
20220627013826 91 195 5.2 10.4 0.00 0.00 0.00 57 1016.6
20220627013725 91 189 7.8 10.4 0.00 0.00 0.00 57 1016.6
20220627013624 91 169 7.0 10.4 0.00 0.00 0.00 57 1016.5
20220627013519 91 159 6.1 10.4 0.00 0.00 0.00 56 1016.5
20220627013417 91 157 5.2 10.4 0.00 0.00 0.00 56 1016.5
20220627013319 91 195 5.2 10.4 0.00 0.00 0.00 56 1016.5
20220627013217 91 190 6.1 10.4 0.00 0.00 0.00 56 1016.4
20220627013114 91 189 6.1 10.4 0.00 0.00 0.00 56 1016.4
20220627013014 91 192 7.0 10.4 0.00 0.00 0.00 56 1016.4
20220627012914 91 196 7.0 10.4 0.00 0.00 0.00 55 1016.3
20220627012814 91 182 5.2 10.4 0.00 0.00 0.00 55 1016.3
20220627012713 91 195 4.3 9.6 0.00 0.00 0.00 55 1016.4
20220627012614 92 188 4.3 10.4 0.00 0.00 0.00 55 1016.4
20220627012516 92 189 4.3 10.4 0.00 0.00 0.00 55 1016.3
20220627012414 92 176 4.3 10.4 0.00 0.00 0.00 55 1016.4
20220627012316 92 179 4.3 10.4 0.00 0.00 0.00 55 1016.3
20220627012215 92 183 6.1 10.4 0.00 0.00 0.00 55 1016.3
20220627012113 92 166 6.1 10.4 0.00 0.00 0.00 54 1016.4
20220627012015 92 161 6.1 10.4 0.00 0.00 0.00 54 1016.4
20220627011914 92 182 6.1 10.4 0.00 0.00 0.00 54 1016.4
20220627011813 92 193 7.0 10.4 0.00 0.00 0.00 54 1016.4
20220627011714 92 179 7.0 10.4 0.00 0.00 0.00 54 1016.4
20220627011616 92 186 5.2 8.7 0.00 0.00 0.00 54 1016.4
20220627011514 92 196 6.1 8.7 0.00 0.00 0.00 54 1016.4
20220627011416 92 207 5.2 8.7 0.00 0.00 0.00 54 1016.4
20220627011315 92 189 4.3 8.7 0.00 0.00 0.00 54 1016.4
20220627011213 92 179 5.2 8.7 0.00 0.00 0.00 54 1016.3
20220627011114 92 195 5.2 8.7 0.00 0.00 0.00 54 1016.4
20220627011014 92 195 5.2 8.7 0.00 0.00 0.00 54 1016.4
20220627010914 92 202 5.2 8.7 0.00 0.00 0.00 54 1016.3
20220627010815 92 204 6.1 8.7 0.00 0.00 0.00 53 1016.3
20220627010714 92 186 5.2 8.7 0.00 0.00 0.00 54 1016.3
20220627010613 93 195 4.3 8.7 0.00 0.00 0.00 54 1016.3
20220627010514 93 168 5.2 8.7 0.00 0.00 0.00 54 1016.3
20220627010415 93 178 5.2 9.6 0.00 0.00 0.00 54 1016.3
20220627010313 93 178 5.2 9.6 0.00 0.00 0.00 53 1016.2
20220627010213 93 195 5.2 9.6 0.00 0.00 0.00 54 1016.2
20220627010114 93 183 5.2 9.6 0.00 0.00 0.00 53 1016.2
20220627010013 93 189 5.2 9.6 0.00 0.00 0.00 53 1016.3
20220627005914 93 206 6.1 9.6 0.00 0.00 0.00 53 1016.2
20220627005818 93 192 7.0 9.6 0.00 0.00 0.00 53 1016.3
20220627005714 93 168 6.1 9.6 0.00 0.00 0.00 53 1016.2
20220627005614 93 195 5.2 11.3 0.00 0.00 0.00 53 1016.2
20220627005513 93 176 4.3 11.3 0.00 0.00 0.00 53 1016.2
20220627005414 93 189 3.5 11.3 0.00 0.00 0.00 53 1016.2
20220627005313 93 171 4.3 11.3 0.00 0.00 0.00 53 1016.1
20220627005213 93 186 4.3 11.3 0.00 0.00 0.00 53 1016.2
20220627005114 93 189 6.1 11.3 0.00 0.00 0.00 52 1016.1
20220627005017 93 192 6.1 11.3 0.00 0.00 0.00 52 1016.1
20220627004912 94 180 6.1 11.3 0.00 0.00 0.00 52 1016.2
20220627004813 94 199 7.0 11.3 0.00 0.00 0.00 52 1016.1
20220627004715 94 189 7.0 11.3 0.00 0.00 0.00 52 1016.1
20220627004613 94 188 7.0 10.4 0.00 0.00 0.00 52 1016.1
20220627004513 94 171 7.0 10.4 0.00 0.00 0.00 52 1016.0
20220627004414 94 210 7.0 10.4 0.00 0.00 0.00 52 1016.0
20220627004314 94 210 7.0 10.4 0.00 0.00 0.00 52 1016.1
20220627004213 94 204 7.0 10.4 0.00 0.00 0.00 52 1016.1
20220627004112 94 188 6.1 9.6 0.00 0.00 0.00 52 1016.0
20220627004014 94 180 5.2 9.6 0.00 0.00 0.00 52 1016.0
20220627003914 94 172 6.1 9.6 0.00 0.00 0.00 52 1016.0
20220627003812 94 196 4.3 9.6 0.00 0.00 0.00 52 1015.9
20220627003713 94 188 3.5 8.7 0.00 0.00 0.00 52 1016.0
20220627003613 94 186 5.2 8.7 0.00 0.00 0.00 52 1016.0
20220627003515 94 186 5.2 8.7 0.00 0.00 0.00 52 1016.0
20220627003413 94 189 5.2 8.7 0.00 0.00 0.00 53 1015.9
20220627003314 94 189 6.1 8.7 0.00 0.00 0.00 53 1015.9
20220627003212 94 178 6.1 8.7 0.00 0.00 0.00 53 1015.9
20220627003113 94 200 6.1 8.7 0.00 0.00 0.00 52 1015.9
20220627003014 94 169 5.2 8.7 0.00 0.00 0.00 53 1015.9
20220627002912 94 189 5.2 7.8 0.00 0.00 0.00 53 1015.9
20220627002813 94 179 5.2 7.8 0.00 0.00 0.00 52 1016.0
20220627002713 94 192 4.3 7.8 0.00 0.00 0.00 52 1016.0
20220627002614 94 171 5.2 7.8 0.00 0.00 0.00 52 1015.9
20220627002512 94 166 6.1 7.8 0.00 0.00 0.00 52 1015.9
20220627002413 94 158 5.2 7.8 0.00 0.00 0.00 52 1015.9
20220627002313 94 176 4.3 6.1 0.00 0.00 0.00 52 1015.9
20220627002216 94 165 4.3 6.1 0.00 0.00 0.00 53 1015.9
20220627002113 94 179 4.3 6.1 0.00 0.00 0.00 53 1015.9
20220627002013 94 189 5.2 6.1 0.00 0.00 0.00 52 1015.9
20220627001915 94 196 3.5 6.1 0.00 0.00 0.00 53 1016.0
20220627001812 94 171 4.3 6.1 0.00 0.00 0.00 53 1016.0
20220627001715 94 185 4.3 6.1 0.00 0.00 0.00 53 1015.9
20220627001615 94 182 3.5 6.1 0.00 0.00 0.00 53 1016.0
20220627001512 94 196 3.5 6.1 0.00 0.00 0.00 53 1016.0
20220627001412 94 183 3.5 6.1 0.00 0.00 0.00 53 1016.0
20220627001313 94 185 4.3 6.1 0.00 0.00 0.00 53 1016.1
20220627001214 94 145 3.5 6.1 0.00 0.00 0.00 53 1016.0
20220627001112 94 140 3.5 6.1 0.00 0.00 0.00 53 1016.0
20220627001013 94 148 3.5 6.1 0.00 0.00 0.00 53 1015.9
20220627000912 94 114 4.3 6.1 0.00 0.00 0.00 53 1016.0
20220627000806 94 133 4.3 6.1 0.00 0.00 0.00 53 1015.9
20220627000705 94 140 3.5 10.4 0.00 0.00 0.00 53 1015.9
20220627000606 94 157 3.5 10.4 0.00 0.00 0.00 53 1015.9
20220627000502 94 131 3.5 10.4 0.00 0.00 0.00 53 1015.9
20220627000403 94 165 2.6 10.4 0.00 0.00 0.00 53 1015.9
20220627000303 94 149 3.5 10.4 0.00 0.00 0.00 53 1015.9
20220627000204 94 155 4.3 10.4 0.00 0.00 0.00 53 1015.8
20220627000102 94 157 4.3 10.4 0.00 0.00 0.00 52 1015.9
20220627000003 94 125 4.3 10.4 0.00 0.00 0.00 52 1015.9
20220626235907 94 141 5.2 10.4 0.00 0.00 0.00 52 1015.8
20220626235803 94 178 5.2 10.4 0.00 0.00 0.00 52 1015.7
20220626235701 94 151 4.3 8.7 0.00 0.00 0.00 51 1015.7
20220626235557 94 100 3.5 8.7 0.00 0.00 0.00 51 1015.7
20220626235458 94 130 3.5 8.7 0.00 0.00 0.00 52 1015.6
20220626235357 94 117 4.3 10.4 0.00 0.00 0.00 52 1015.6
20220626235254 94 169 5.2 10.4 0.00 0.00 0.00 52 1015.6
20220626235156 95 155 4.3 10.4 0.00 0.00 0.00 52 1015.6
20220626235059 95 158 4.3 10.4 0.00 0.00 0.00 52 1015.7
20220626234950 95 148 5.2 10.4 0.00 0.00 0.00 52 1015.7
20220626234851 95 165 4.3 10.4 0.00 0.00 0.00 51 1015.7
20220626234748 95 161 4.3 10.4 0.00 0.00 0.00 51 1015.7
20220626234646 95 134 5.2 10.4 0.00 0.00 0.00 50 1015.7
20220626234544 95 131 6.1 10.4 0.00 0.00 0.00 50 1015.7
20220626234442 95 154 5.2 10.4 0.00 0.00 0.00 50 1015.7
20220626234341 95 164 5.2 8.7 0.00 0.00 0.00 49 1015.7
20220626234236 95 117 4.3 8.7 0.00 0.00 0.00 49 1015.7
20220626234135 95 173 5.2 8.7 0.00 0.00 0.00 49 1015.7
20220626234034 96 158 6.1 8.7 0.00 0.00 0.00 49 1015.7
20220626233936 96 168 4.3 6.1 0.00 0.00 0.00 48 1015.7
20220626233834 96 144 2.6 6.1 0.00 0.00 0.00 48 1015.6
20220626233733 96 144 2.6 8.7 0.00 0.00 0.00 48 1015.6
20220626233637 96 168 3.5 8.7 0.00 0.00 0.00 48 1015.8
20220626233535 96 147 3.5 8.7 0.00 0.00 0.00 48 1015.7
20220626233435 96 123 3.5 8.7 0.00 0.00 0.00 47 1015.6
20220626233333 96 161 3.5 8.7 0.00 0.00 0.00 47 1015.7
20220626233235 96 118 4.3 8.7 0.00 0.00 0.00 47 1015.6
20220626233135 96 157 3.5 8.7 0.00 0.00 0.00 46 1015.6
20220626233033 96 165 4.3 8.7 0.00 0.00 0.00 46 1015.7
20220626232933 96 140 4.3 8.7 0.00 0.00 0.00 46 1015.6
20220626232833 96 179 3.5 8.7 0.00 0.00 0.00 46 1015.5
20220626232734 96 99 3.5 8.7 0.00 0.00 0.00 46 1015.6
20220626232634 96 157 4.3 8.7 0.00 0.00 0.00 46 1015.6
20220626232537 96 125 4.3 8.7 0.00 0.00 0.00 46 1015.6
20220626232436 96 137 5.2 8.7 0.00 0.00 0.00 46 1015.5
20220626232332 96 149 6.1 8.7 0.00 0.00 0.00 46 1015.6
20220626232234 97 166 4.3 8.7 0.00 0.00 0.00 46 1015.5
20220626232135 97 159 3.5 8.7 0.00 0.00 0.00 46 1015.5
20220626232045 96 154 3.5 8.7 0.00 0.00 0.00 47 1015.5
20220626231933 96 144 3.5 8.7 0.00 0.00 0.00 47 1015.5
20220626231834 96 116 4.3 8.7 0.00 0.00 0.00 46 1015.5
20220626231734 96 127 5.2 8.7 0.00 0.00 0.00 46 1015.6
20220626231634 96 107 5.2 8.7 0.00 0.00 0.00 46 1015.6
20220626231536 96 113 6.1 8.7 0.00 0.00 0.00 46 1015.6
20220626231434 97 116 5.2 8.7 0.00 0.00 0.00 46 1015.6
20220626231333 97 111 4.3 6.1 0.00 0.00 0.00 45 1015.6
20220626231234 97 111 4.3 6.1 0.00 0.00 0.00 45 1015.6
20220626231138 97 128 1.7 6.1 0.00 0.00 0.00 45 1015.6
20220626231034 97 138 0.0 3.5 0.00 0.00 0.00 44 1015.5
20220626230934 98 131 0.0 0.0 0.00 0.00 0.00 44 1015.5
20220626230838 98 165 0.0 0.0 0.00 0.00 0.00 44 1015.5
20220626230734 98 161 0.0 0.0 0.00 0.00 0.00 44 1015.6
20220626230635 98 135 0.0 0.0 0.00 0.00 0.00 45 1015.5
20220626230533 98 125 0.0 0.0 0.00 0.00 0.00 44 1015.5
20220626230435 98 134 0.0 0.0 0.00 0.00 0.00 44 1015.5
20220626230334 98 130 0.0 0.0 0.00 0.00 0.00 44 1015.5
20220626230235 98 117 0.0 0.0 0.00 0.00 0.00 44 1015.5
20220626230137 98 141 0.0 0.0 0.00 0.00 0.00 43 1015.4
20220626230034 98 123 0.0 0.0 0.00 0.00 0.00 43 1015.5
20220626225934 98 123 0.0 0.0 0.00 0.00 0.00 43 1015.5
20220626225834 98 166 0.0 0.0 0.00 0.00 0.00 43 1015.5
20220626225734 98 123 0.0 0.0 0.00 0.00 0.00 43 1015.5
20220626225634 98 116 0.0 0.0 0.00 0.00 0.00 43 1015.5
20220626225534 98 157 0.0 0.0 0.00 0.00 0.00 43 1015.5
20220626225436 98 162 0.0 0.0 0.00 0.00 0.00 43 1015.5
20220626225335 98 166 0.0 0.0 0.00 0.00 0.00 43 1015.5
20220626225233 98 159 0.0 0.0 0.00 0.00 0.00 44 1015.6
20220626225135 97 142 0.0 0.0 0.00 0.00 0.00 44 1015.6
20220626225033 97 140 0.0 0.0 0.00 0.00 0.00 44 1015.5
20220626224934 97 144 0.0 0.0 0.00 0.00 0.00 44 1015.5
20220626224834 97 155 0.0 0.0 0.00 0.00 0.00 44 1015.4
20220626224737 97 125 0.0 0.0 0.00 0.00 0.00 44 1015.5
20220626224633 98 145 0.0 0.0 0.00 0.00 0.00 43 1015.4
20220626224533 97 171 0.0 0.0 0.00 0.00 0.00 43 1015.3
20220626224439 97 157 0.0 0.0 0.00 0.00 0.00 43 1015.4
20220626224336 98 168 0.0 0.0 0.00 0.00 0.00 43 1015.4
20220626224233 98 114 0.0 0.0 0.00 0.00 0.00 43 1015.4
20220626224134 98 142 0.0 0.0 0.00 0.00 0.00 43 1015.4
20220626224034 98 173 0.0 0.0 0.00 0.00 0.00 44 1015.4
20220626223933 97 185 0.0 0.0 0.00 0.00 0.00 44 1015.4
20220626223834 97 183 0.0 0.0 0.00 0.00 0.00 44 1015.4
20220626223734 97 175 0.0 0.0 0.00 0.00 0.00 43 1015.4
20220626223636 97 141 0.0 0.0 0.00 0.00 0.00 44 1015.4
20220626223534 97 117 0.0 0.0 0.00 0.00 0.00 44 1015.4
20220626223434 97 168 0.0 0.0 0.00 0.00 0.00 44 1015.4
20220626223333 97 209 0.0 0.0 0.00 0.00 0.00 43 1015.4
20220626223233 97 179 0.0 0.0 0.00 0.00 0.00 43 1015.4
20220626223133 97 159 0.0 0.0 0.00 0.00 0.00 43 1015.4
20220626223036 97 159 0.0 0.0 0.00 0.00 0.00 43 1015.4
20220626222936 97 159 0.0 5.2 0.00 0.00 0.00 43 1015.5
20220626222833 97 154 0.0 6.1 0.00 0.00 0.00 43 1015.5
20220626222734 97 154 0.0 6.1 0.00 0.00 0.00 43 1015.4
20220626222634 97 137 0.0 6.1 0.00 0.00 0.00 44 1015.5
20220626222536 97 109 0.0 6.1 0.00 0.00 0.00 44 1015.4
20220626222433 97 93 0.0 7.8 0.00 0.00 0.00 44 1015.5
20220626222334 97 171 0.0 7.8 0.00 0.00 0.00 44 1015.6
20220626222233 96 176 0.0 7.8 0.00 0.00 0.00 44 1015.5
20220626222135 96 151 1.7 7.8 0.00 0.00 0.00 44 1015.6
20220626222034 96 165 3.5 7.8 0.00 0.00 0.00 45 1015.6
20220626221934 96 179 4.3 7.8 0.00 0.00 0.00 45 1015.6
20220626221833 96 176 4.3 7.8 0.00 0.00 0.00 44 1015.6
20220626221737 96 176 4.3 7.8 0.00 0.00 0.00 45 1015.6
20220626221637 96 200 5.2 7.8 0.00 0.00 0.00 45 1015.7
20220626221536 96 204 5.2 7.8 0.00 0.00 0.00 45 1015.7
20220626221436 96 173 5.2 7.8 0.00 0.00 0.00 44 1015.6
20220626221338 96 171 4.3 8.7 0.00 0.00 0.00 44 1015.7
20220626221234 96 158 5.2 10.4 0.00 0.00 0.00 44 1015.7
20220626221132 96 165 5.2 10.4 0.00 0.00 0.00 45 1015.8
20220626221033 96 140 5.2 10.4 0.00 0.00 0.00 46 1015.8
20220626220935 96 149 5.2 10.4 0.00 0.00 0.00 46 1015.9
20220626220833 96 185 5.2 10.4 0.00 0.00 0.00 45 1015.7
20220626220734 96 186 4.3 10.4 0.00 0.00 0.00 46 1015.8
20220626220634 96 209 4.3 10.4 0.00 0.00 0.00 46 1015.9
20220626220533 96 176 5.2 10.4 0.00 0.00 0.00 46 1015.8
20220626220434 96 157 7.0 10.4 0.00 0.00 0.00 45 1015.9
20220626220335 96 171 7.8 10.4 0.00 0.00 0.00 45 1015.8
20220626220233 96 166 7.8 10.4 0.00 0.00 0.00 45 1015.9
20220626220133 96 158 7.0 9.6 0.00 0.00 0.00 45 1015.9
20220626220034 96 173 7.0 8.7 0.00 0.00 0.00 45 1015.9
20220626215935 96 190 5.2 11.3 0.00 0.00 0.00 45 1015.9
20220626215834 96 157 4.3 11.3 0.00 0.00 0.00 45 1016.0
20220626215734 96 162 4.3 11.3 0.00 0.00 0.00 45 1016.0
20220626215634 96 199 4.3 11.3 0.00 0.00 0.00 45 1016.0
20220626215533 96 217 4.3 11.3 0.00 0.00 0.00 46 1016.0
20220626215433 96 210 3.5 11.3 0.00 0.00 0.00 46 1016.1
20220626215335 96 255 5.2 11.3 0.00 0.00 0.00 46 1016.0
20220626215234 96 223 5.2 11.3 0.00 0.00 0.00 45 1016.1
20220626215135 96 223 5.2 11.3 0.00 0.00 0.00 46 1016.1
20220626215035 96 204 7.0 11.3 0.00 0.00 0.00 45 1016.1
20220626214934 96 250 7.0 10.4 0.00 0.00 0.00 45 1016.1
20220626214834 96 212 5.2 10.4 0.00 0.00 0.00 46 1016.1
20220626214734 96 212 5.2 10.4 0.00 0.00 0.00 46 1016.0
20220626214633 96 172 6.1 10.4 0.00 0.00 0.00 46 1016.1
20220626214534 96 207 7.0 10.4 0.00 0.00 0.00 46 1016.1
20220626214434 96 216 7.0 11.3 0.00 0.00 0.00 46 1016.1
20220626214334 96 212 7.0 11.3 0.00 0.00 0.00 46 1016.0
20220626214234 96 186 6.1 11.3 0.00 0.00 0.00 46 1016.1
20220626214138 97 224 7.0 11.3 0.00 0.00 0.00 45 1016.1
20220626214033 97 210 7.0 11.3 0.00 0.00 0.00 46 1016.1
20220626213935 97 216 5.2 11.3 0.00 0.00 0.00 46 1016.0
20220626213833 97 230 5.2 11.3 0.00 0.00 0.00 46 1016.1
20220626213734 97 206 6.1 11.3 0.00 0.00 0.00 46 1016.1
20220626213634 97 210 7.8 11.3 0.00 0.00 0.00 45 1016.1
20220626213536 97 193 7.8 11.3 0.00 0.00 0.00 45 1016.1
20220626213433 97 202 7.0 10.4 0.00 0.00 0.00 45 1016.1
20220626213333 97 195 6.1 10.4 0.00 0.00 0.00 45 1016.1
20220626213233 97 200 7.0 10.4 0.00 0.00 0.00 45 1016.1
20220626213135 97 192 3.5 10.4 0.00 0.00 0.00 45 1016.1
20220626213034 97 190 0.0 5.2 0.00 0.00 0.00 45 1016.1
20220626212935 97 217 0.0 0.0 0.00 0.00 0.00 45 1016.1
20220626212833 97 219 0.0 0.0 0.00 0.00 0.00 44 1016.1
20220626212735 98 213 0.0 0.0 0.00 0.00 0.00 44 1016.1
20220626212634 98 185 0.0 0.0 0.00 0.00 0.00 44 1016.0
20220626212533 98 180 0.0 0.0 0.00 0.00 0.00 44 1016.0
20220626212433 98 193 0.0 0.0 0.00 0.00 0.00 44 1016.0
20220626212333 98 176 0.0 0.0 0.00 0.00 0.00 44 1016.0
20220626212234 98 192 0.0 0.0 0.00 0.00 0.00 45 1016.2
20220626212134 98 257 0.0 0.0 0.00 0.00 0.00 45 1016.1
20220626212033 98 219 0.0 0.0 0.00 0.00 0.00 46 1016.2
20220626211934 98 189 0.0 0.0 0.00 0.00 0.00 46 1016.2